Wetterdaten: aktuell Donnerstag, 02.07.2020 08:31
Datum Zeit Temp. I. Temp. A. Feuchte I. Feuchte A. Luftdruck Regen Wind Richtung Richtung ET Taupunkt Windchill Windben Empfang
02.07.2020 08:31 26,8 C 20,3 C 53 % 63 % 1013,0 hPa 0,0 l/m 3,2 km/h (1 Bft) W-SW 247 0,000 mm 13,0 C 20,3 C 4,8 km/h (1 Bft) 95,65 %
02.07.2020 08:30 26,8 C 20,3 C 52 % 63 % 1013,1 hPa 0,0 l/m 3,2 km/h (1 Bft) S-SW 202 0,000 mm 13,0 C 20,3 C 4,8 km/h (1 Bft) 100,00 %
02.07.2020 08:29 26,8 C 20,2 C 53 % 63 % 1013,1 hPa 0,0 l/m 1,6 km/h (1 Bft) W 270 0,000 mm 12,9 C 20,2 C 3,2 km/h (1 Bft) 100,00 %
02.07.2020 08:28 26,8 C 20,2 C 53 % 64 % 1013,1 hPa 0,0 l/m 1,6 km/h (1 Bft) W-SW 247 0,000 mm 13,2 C 20,2 C 3,2 km/h (1 Bft) 100,00 %
02.07.2020 08:27 26,8 C 20,1 C 53 % 65 % 1013,1 hPa 0,0 l/m 3,2 km/h (1 Bft) SW 225 0,000 mm 13,3 C 20,1 C 4,8 km/h (1 Bft) 100,00 %
02.07.2020 08:26 26,8 C 20,1 C 53 % 64 % 1013,1 hPa 0,0 l/m 3,2 km/h (1 Bft) SW 225 0,000 mm 13,1 C 20,1 C 6,4 km/h (2 Bft) 100,00 %
02.07.2020 08:25 26,8 C 20,1 C 53 % 65 % 1013,1 hPa 0,0 l/m 3,2 km/h (1 Bft) SW 225 0,000 mm 13,3 C 20,1 C 4,8 km/h (1 Bft) 100,00 %
02.07.2020 08:24 26,8 C 20,1 C 53 % 64 % 1013,1 hPa 0,0 l/m 6,4 km/h (2 Bft) S-SW 202 0,000 mm 13,1 C 20,1 C 8,0 km/h (2 Bft) 95,65 %
02.07.2020 08:23 26,8 C 20,1 C 53 % 64 % 1013,1 hPa 0,0 l/m 8,0 km/h (2 Bft) S-SW 202 0,000 mm 13,1 C 19,5 C 9,7 km/h (2 Bft) 95,65 %
02.07.2020 08:22 26,8 C 20,1 C 53 % 64 % 1013,1 hPa 0,0 l/m 4,8 km/h (1 Bft) SW 225 0,000 mm 13,1 C 20,1 C 8,0 km/h (2 Bft) 100,00 %
02.07.2020 08:21 26,8 C 20,1 C 53 % 64 % 1013,2 hPa 0,0 l/m 3,2 km/h (1 Bft) SW 225 0,000 mm 13,1 C 20,1 C 4,8 km/h (1 Bft) 100,00 %
02.07.2020 08:20 26,8 C 20,0 C 53 % 64 % 1013,1 hPa 0,0 l/m 3,2 km/h (1 Bft) SW 225 0,000 mm 13,0 C 20,0 C 6,4 km/h (2 Bft) 100,00 %
02.07.2020 08:19 26,8 C 19,9 C 53 % 63 % 1013,0 hPa 0,0 l/m 6,4 km/h (2 Bft) S-SW 202 0,000 mm 12,6 C 19,9 C 8,0 km/h (2 Bft) 100,00 %
02.07.2020 08:18 26,8 C 20,0 C 53 % 64 % 1013,1 hPa 0,0 l/m 6,4 km/h (2 Bft) SW 225 0,000 mm 13,0 C 20,0 C 9,7 km/h (2 Bft) 100,00 %
02.07.2020 08:17 26,8 C 19,9 C 53 % 64 % 1013,1 hPa 0,0 l/m 6,4 km/h (2 Bft) SW 225 0,000 mm 12,9 C 19,9 C 8,0 km/h (2 Bft) 100,00 %
02.07.2020 08:16 26,8 C 19,9 C 53 % 66 % 1013,1 hPa 0,0 l/m 4,8 km/h (1 Bft) SW 225 0,000 mm 13,4 C 19,9 C 8,0 km/h (2 Bft) 100,00 %
02.07.2020 08:15 26,8 C 19,8 C 53 % 65 % 1013,1 hPa 0,0 l/m 6,4 km/h (2 Bft) S-SW 202 0,000 mm 13,0 C 19,8 C 8,0 km/h (2 Bft) 95,65 %
02.07.2020 08:14 26,8 C 19,7 C 53 % 65 % 1013,1 hPa 0,0 l/m 8,0 km/h (2 Bft) S-SW 202 0,000 mm 12,9 C 19,0 C 9,7 km/h (2 Bft) 100,00 %
02.07.2020 08:13 26,8 C 19,5 C 53 % 66 % 1013,1 hPa 0,0 l/m 8,0 km/h (2 Bft) SW 225 0,000 mm 13,0 C 18,8 C 11,3 km/h (2 Bft) 100,00 %
02.07.2020 08:12 26,8 C 19,4 C 52 % 65 % 1013,1 hPa 0,0 l/m 8,0 km/h (2 Bft) SW 225 0,000 mm 12,6 C 18,7 C 9,7 km/h (2 Bft) 100,00 %
02.07.2020 08:11 26,8 C 19,3 C 52 % 65 % 1013,1 hPa 0,0 l/m 6,4 km/h (2 Bft) SW 225 0,000 mm 12,6 C 19,3 C 9,7 km/h (2 Bft) 100,00 %
02.07.2020 08:10 26,8 C 19,2 C 52 % 65 % 1013,1 hPa 0,0 l/m 8,0 km/h (2 Bft) S-SW 202 0,000 mm 12,5 C 18,5 C 9,7 km/h (2 Bft) 100,00 %
02.07.2020 08:09 26,8 C 19,1 C 52 % 67 % 1013,1 hPa 0,0 l/m 6,4 km/h (2 Bft) S-SW 202 0,000 mm 12,8 C 19,1 C 9,7 km/h (2 Bft) 95,65 %
02.07.2020 08:08 26,8 C 18,9 C 52 % 67 % 1013,1 hPa 0,0 l/m 6,4 km/h (2 Bft) S-SW 202 0,000 mm 12,6 C 18,9 C 9,7 km/h (2 Bft) 100,00 %
02.07.2020 08:07 26,8 C 18,9 C 52 % 67 % 1013,0 hPa 0,0 l/m 6,4 km/h (2 Bft) S-SW 202 0,000 mm 12,6 C 18,9 C 6,4 km/h (2 Bft) 100,00 %
02.07.2020 08:06 26,8 C 18,8 C 52 % 66 % 1013,0 hPa 0,0 l/m 4,8 km/h (1 Bft) S-SW 202 0,000 mm 12,3 C 18,8 C 8,0 km/h (2 Bft) 100,00 %
02.07.2020 08:05 26,8 C 18,7 C 52 % 67 % 1013,0 hPa 0,0 l/m 6,4 km/h (2 Bft) S-SW 202 0,000 mm 12,4 C 18,7 C 8,0 km/h (2 Bft) 100,00 %
02.07.2020 08:04 26,8 C 18,6 C 52 % 67 % 1013,0 hPa 0,0 l/m 4,8 km/h (1 Bft) S-SW 202 0,000 mm 12,3 C 18,6 C 6,4 km/h (2 Bft) 95,65 %
02.07.2020 08:03 26,8 C 18,6 C 52 % 66 % 1013,0 hPa 0,0 l/m 4,8 km/h (1 Bft) S-SW 202 0,000 mm 12,1 C 18,6 C 8,0 km/h (2 Bft) 100,00 %
02.07.2020 08:02 26,8 C 18,6 C 52 % 66 % 1013,0 hPa 0,0 l/m 6,4 km/h (2 Bft) S-SW 202 0,000 mm 12,1 C 18,6 C 8,0 km/h (2 Bft) 100,00 %
02.07.2020 08:01 26,8 C 18,5 C 52 % 67 % 1013,0 hPa 0,0 l/m 4,8 km/h (1 Bft) S 180 0,000 mm 12,3 C 18,5 C 6,4 km/h (2 Bft) 100,00 %
02.07.2020 08:00 26,8 C 18,4 C 52 % 68 % 1013,0 hPa 0,0 l/m 4,8 km/h (1 Bft) S 180 0,000 mm 12,4 C 18,4 C 8,0 km/h (2 Bft) 100,00 %
02.07.2020 07:59 26,8 C 18,3 C 52 % 68 % 1013,0 hPa 0,0 l/m 4,8 km/h (1 Bft) S-SW 202 0,000 mm 12,3 C 18,3 C 6,4 km/h (2 Bft) 100,00 %
02.07.2020 07:58 26,8 C 18,1 C 52 % 67 % 1013,1 hPa 0,0 l/m 4,8 km/h (1 Bft) S-SW 202 0,000 mm 11,9 C 18,1 C 6,4 km/h (2 Bft) 100,00 %
02.07.2020 07:57 26,8 C 18,0 C 52 % 69 % 1013,0 hPa 0,0 l/m 3,2 km/h (1 Bft) S 180 0,000 mm 12,2 C 18,0 C 6,4 km/h (2 Bft) 100,00 %
02.07.2020 07:56 26,9 C 17,9 C 52 % 69 % 1013,0 hPa 0,0 l/m 4,8 km/h (1 Bft) S-SW 202 0,000 mm 12,1 C 17,9 C 6,4 km/h (2 Bft) 100,00 %
02.07.2020 07:55 26,8 C 17,9 C 52 % 68 % 1013,0 hPa 0,0 l/m 4,8 km/h (1 Bft) S 180 0,000 mm 11,9 C 17,9 C 8,0 km/h (2 Bft) 100,00 %
02.07.2020 07:54 26,9 C 17,9 C 52 % 69 % 1013,0 hPa 0,0 l/m 4,8 km/h (1 Bft) S 180 0,000 mm 12,1 C 17,9 C 8,0 km/h (2 Bft) 100,00 %
02.07.2020 07:53 26,9 C 17,9 C 52 % 69 % 1013,1 hPa 0,0 l/m 3,2 km/h (1 Bft) S-SO 157 0,000 mm 12,1 C 17,9 C 6,4 km/h (2 Bft) 100,00 %
02.07.2020 07:52 26,9 C 17,8 C 52 % 69 % 1013,1 hPa 0,0 l/m 4,8 km/h (1 Bft) S 180 0,000 mm 12,0 C 17,8 C 6,4 km/h (2 Bft) 95,65 %
02.07.2020 07:51 26,9 C 17,9 C 52 % 69 % 1013,1 hPa 0,0 l/m 4,8 km/h (1 Bft) S 180 0,000 mm 12,1 C 17,9 C 6,4 km/h (2 Bft) 100,00 %
02.07.2020 07:50 26,9 C 17,8 C 52 % 69 % 1013,0 hPa 0,0 l/m 4,8 km/h (1 Bft) S 180 0,000 mm 12,0 C 17,8 C 4,8 km/h (1 Bft) 100,00 %
02.07.2020 07:49 26,9 C 17,8 C 52 % 69 % 1013,1 hPa 0,0 l/m 4,8 km/h (1 Bft) S 180 0,000 mm 12,0 C 17,8 C 4,8 km/h (1 Bft) 95,65 %
02.07.2020 07:48 26,9 C 17,8 C 52 % 68 % 1013,1 hPa 0,0 l/m 4,8 km/h (1 Bft) S-SW 202 0,000 mm 11,8 C 17,8 C 4,8 km/h (1 Bft) 100,00 %
02.07.2020 07:47 26,9 C 17,7 C 52 % 69 % 1013,1 hPa 0,0 l/m 4,8 km/h (1 Bft) S 180 0,000 mm 11,9 C 17,7 C 6,4 km/h (2 Bft) 100,00 %
02.07.2020 07:46 26,9 C 17,7 C 52 % 69 % 1013,1 hPa 0,0 l/m 4,8 km/h (1 Bft) S 180 0,000 mm 11,9 C 17,7 C 6,4 km/h (2 Bft) 100,00 %
02.07.2020 07:45 26,9 C 17,7 C 52 % 69 % 1013,2 hPa 0,0 l/m 4,8 km/h (1 Bft) S 180 0,000 mm 11,9 C 17,7 C 4,8 km/h (1 Bft) 100,00 %
02.07.2020 07:44 27,0 C 17,7 C 52 % 71 % 1013,1 hPa 0,0 l/m 3,2 km/h (1 Bft) S 180 0,000 mm 12,4 C 17,7 C 4,8 km/h (1 Bft) 100,00 %
02.07.2020 07:43 26,9 C 17,7 C 52 % 70 % 1013,1 hPa 0,0 l/m 3,2 km/h (1 Bft) S 180 0,000 mm 12,2 C 17,7 C 3,2 km/h (1 Bft) 100,00 %
02.07.2020 07:42 27,0 C 17,7 C 52 % 70 % 1013,2 hPa 0,0 l/m 4,8 km/h (1 Bft) S 180 0,000 mm 12,2 C 17,7 C 6,4 km/h (2 Bft) 100,00 %
02.07.2020 07:41 27,0 C 17,6 C 52 % 71 % 1013,1 hPa 0,0 l/m 4,8 km/h (1 Bft) S-SW 202 0,000 mm 12,3 C 17,6 C 4,8 km/h (1 Bft) 100,00 %
02.07.2020 07:40 26,9 C 17,6 C 52 % 71 % 1013,1 hPa 0,0 l/m 4,8 km/h (1 Bft) S-SW 202 0,000 mm 12,3 C 17,6 C 4,8 km/h (1 Bft) 100,00 %
02.07.2020 07:39 27,0 C 17,6 C 52 % 71 % 1013,1 hPa 0,0 l/m 3,2 km/h (1 Bft) S 180 0,000 mm 12,3 C 17,6 C 4,8 km/h (1 Bft) 100,00 %
02.07.2020 07:38 27,0 C 17,6 C 52 % 71 % 1013,2 hPa 0,0 l/m 4,8 km/h (1 Bft) S 180 0,000 mm 12,3 C 17,6 C 6,4 km/h (2 Bft) 100,00 %
02.07.2020 07:37 26,9 C 17,4 C 52 % 71 % 1013,2 hPa 0,0 l/m 4,8 km/h (1 Bft) S-SW 202 0,000 mm 12,1 C 17,4 C 6,4 km/h (2 Bft) 100,00 %
02.07.2020 07:36 27,0 C 17,4 C 52 % 71 % 1013,1 hPa 0,0 l/m 4,8 km/h (1 Bft) S-SW 202 0,000 mm 12,1 C 17,4 C 6,4 km/h (2 Bft) 100,00 %
02.07.2020 07:35 26,9 C 17,4 C 52 % 72 % 1013,1 hPa 0,0 l/m 4,8 km/h (1 Bft) S-SW 202 0,000 mm 12,3 C 17,4 C 6,4 km/h (2 Bft) 100,00 %
02.07.2020 07:34 27,0 C 17,3 C 52 % 72 % 1013,2 hPa 0,0 l/m 4,8 km/h (1 Bft) SW 225 0,000 mm 12,2 C 17,3 C 4,8 km/h (1 Bft) 100,00 %
02.07.2020 07:33 26,9 C 17,3 C 52 % 72 % 1013,1 hPa 0,0 l/m 3,2 km/h (1 Bft) SW 225 0,000 mm 12,2 C 17,3 C 4,8 km/h (1 Bft) 100,00 %
02.07.2020 07:32 27,0 C 17,3 C 52 % 72 % 1013,2 hPa 0,0 l/m 3,2 km/h (1 Bft) SW 225 0,000 mm 12,2 C 17,3 C 4,8 km/h (1 Bft) 100,00 %
02.07.2020 07:31 26,9 C 17,2 C 52 % 72 % 1013,1 hPa 0,0 l/m 3,2 km/h (1 Bft) SW 225 0,000 mm 12,1 C 17,2 C 3,2 km/h (1 Bft) 95,65 %
02.07.2020 07:30 27,0 C 17,2 C 52 % 72 % 1013,1 hPa 0,0 l/m 1,6 km/h (1 Bft) SW 225 0,000 mm 12,1 C 17,2 C 3,2 km/h (1 Bft) 100,00 %
02.07.2020 07:29 26,9 C 17,1 C 52 % 71 % 1013,2 hPa 0,0 l/m 1,6 km/h (1 Bft) SW 225 0,000 mm 11,8 C 17,1 C 3,2 km/h (1 Bft) 95,65 %
02.07.2020 07:28 27,0 C 17,1 C 52 % 71 % 1013,2 hPa 0,0 l/m 1,6 km/h (1 Bft) SW 225 0,000 mm 11,8 C 17,1 C 3,2 km/h (1 Bft) 100,00 %
02.07.2020 07:27 27,0 C 17,1 C 52 % 71 % 1013,1 hPa 0,0 l/m 3,2 km/h (1 Bft) SW 225 0,000 mm 11,8 C 17,1 C 3,2 km/h (1 Bft) 100,00 %
02.07.2020 07:26 26,9 C 17,1 C 53 % 71 % 1013,2 hPa 0,0 l/m 3,2 km/h (1 Bft) SW 225 0,000 mm 11,8 C 17,1 C 4,8 km/h (1 Bft) 100,00 %
02.07.2020 07:25 27,0 C 17,1 C 53 % 71 % 1013,2 hPa 0,0 l/m 3,2 km/h (1 Bft) SW 225 0,000 mm 11,8 C 17,1 C 4,8 km/h (1 Bft) 100,00 %
02.07.2020 07:24 27,0 C 17,0 C 53 % 71 % 1013,2 hPa 0,0 l/m 3,2 km/h (1 Bft) SW 225 0,000 mm 11,7 C 17,0 C 3,2 km/h (1 Bft) 95,65 %
02.07.2020 07:23 27,0 C 17,0 C 53 % 71 % 1013,2 hPa 0,0 l/m 3,2 km/h (1 Bft) SW 225 0,000 mm 11,7 C 17,0 C 3,2 km/h (1 Bft) 95,65 %
02.07.2020 07:22 27,0 C 17,1 C 53 % 70 % 1013,2 hPa 0,0 l/m 1,6 km/h (1 Bft) SW 225 0,000 mm 11,6 C 17,1 C 3,2 km/h (1 Bft) 100,00 %
02.07.2020 07:21 27,0 C 17,0 C 53 % 70 % 1013,2 hPa 0,0 l/m 3,2 km/h (1 Bft) SW 225 0,000 mm 11,5 C 17,0 C 3,2 km/h (1 Bft) 100,00 %
02.07.2020 07:20 27,0 C 17,1 C 53 % 70 % 1013,2 hPa 0,0 l/m 3,2 km/h (1 Bft) SW 225 0,000 mm 11,6 C 17,1 C 4,8 km/h (1 Bft) 100,00 %
02.07.2020 07:19 27,0 C 17,1 C 53 % 70 % 1013,2 hPa 0,0 l/m 3,2 km/h (1 Bft) SW 225 0,000 mm 11,6 C 17,1 C 4,8 km/h (1 Bft) 95,65 %
02.07.2020 07:18 27,0 C 17,1 C 53 % 70 % 1013,1 hPa 0,0 l/m 3,2 km/h (1 Bft) SW 225 0,000 mm 11,6 C 17,1 C 4,8 km/h (1 Bft) 100,00 %
02.07.2020 07:17 27,0 C 17,1 C 53 % 70 % 1013,2 hPa 0,0 l/m 3,2 km/h (1 Bft) SW 225 0,000 mm 11,6 C 17,1 C 4,8 km/h (1 Bft) 100,00 %
02.07.2020 07:16 27,1 C 17,1 C 53 % 69 % 1013,1 hPa 0,0 l/m 3,2 km/h (1 Bft) SW 225 0,000 mm 11,4 C 17,1 C 4,8 km/h (1 Bft) 100,00 %
02.07.2020 07:15 27,0 C 17,1 C 53 % 69 % 1013,1 hPa 0,0 l/m 3,2 km/h (1 Bft) SW 225 0,000 mm 11,4 C 17,1 C 4,8 km/h (1 Bft) 100,00 %
02.07.2020 07:14 27,0 C 17,1 C 53 % 69 % 1013,2 hPa 0,0 l/m 1,6 km/h (1 Bft) W 270 0,000 mm 11,4 C 17,1 C 3,2 km/h (1 Bft) 100,00 %
02.07.2020 07:13 27,1 C 17,1 C 53 % 68 % 1013,2 hPa 0,0 l/m 0,0 km/h (0 Bft) W-NW 292 0,000 mm 11,1 C 17,1 C 3,2 km/h (1 Bft) 100,00 %
02.07.2020 07:12 27,0 C 17,1 C 53 % 68 % 1013,2 hPa 0,0 l/m 0,0 km/h (0 Bft) N 0 0,000 mm 11,1 C 17,1 C 0,0 km/h (0 Bft) 100,00 %
02.07.2020 07:11 27,1 C 17,1 C 53 % 68 % 1013,2 hPa 0,0 l/m 0,0 km/h (0 Bft) N 0 0,000 mm 11,1 C 17,1 C 0,0 km/h (0 Bft) 100,00 %
02.07.2020 07:10 27,0 C 17,1 C 53 % 68 % 1013,1 hPa 0,0 l/m 0,0 km/h (0 Bft) N 0 0,000 mm 11,1 C 17,1 C 0,0 km/h (0 Bft) 100,00 %
02.07.2020 07:09 27,0 C 17,1 C 53 % 68 % 1013,1 hPa 0,0 l/m 0,0 km/h (0 Bft) N 0 0,000 mm 11,1 C 17,1 C 0,0 km/h (0 Bft) 100,00 %
02.07.2020 07:08 27,0 C 17,2 C 53 % 68 % 1013,2 hPa 0,0 l/m 0,0 km/h (0 Bft) W 270 0,000 mm 11,2 C 17,2 C 1,6 km/h (1 Bft) 100,00 %
02.07.2020 07:07 27,0 C 17,1 C 53 % 68 % 1013,1 hPa 0,0 l/m 1,6 km/h (1 Bft) W 270 0,000 mm 11,1 C 17,1 C 3,2 km/h (1 Bft) 95,65 %
02.07.2020 07:06 27,0 C 17,1 C 53 % 68 % 1013,1 hPa 0,0 l/m 1,6 km/h (1 Bft) W 270 0,000 mm 11,1 C 17,1 C 4,8 km/h (1 Bft) 100,00 %
02.07.2020 07:05 27,0 C 17,1 C 53 % 69 % 1013,1 hPa 0,0 l/m 3,2 km/h (1 Bft) W 270 0,000 mm 11,4 C 17,1 C 4,8 km/h (1 Bft) 100,00 %
02.07.2020 07:04 27,0 C 17,1 C 52 % 69 % 1013,1 hPa 0,0 l/m 3,2 km/h (1 Bft) W 270 0,000 mm 11,4 C 17,1 C 6,4 km/h (2 Bft) 95,65 %
02.07.2020 07:03 27,0 C 17,1 C 52 % 69 % 1013,1 hPa 0,0 l/m 1,6 km/h (1 Bft) W-NW 292 0,000 mm 11,4 C 17,1 C 4,8 km/h (1 Bft) 100,00 %
02.07.2020 07:02 27,0 C 17,1 C 52 % 69 % 1013,1 hPa 0,0 l/m 1,6 km/h (1 Bft) W-NW 292 0,000 mm 11,4 C 17,1 C 3,2 km/h (1 Bft) 100,00 %
02.07.2020 07:01 27,0 C 17,1 C 52 % 69 % 1013,1 hPa 0,0 l/m 3,2 km/h (1 Bft) W 270 0,000 mm 11,4 C 17,1 C 6,4 km/h (2 Bft) 100,00 %
02.07.2020 07:00 27,0 C 17,1 C 52 % 69 % 1013,1 hPa 0,0 l/m 1,6 km/h (1 Bft) W-NW 292 0,000 mm 11,4 C 17,1 C 3,2 km/h (1 Bft) 100,00 %
02.07.2020 06:59 27,0 C 17,1 C 52 % 69 % 1013,1 hPa 0,0 l/m 1,6 km/h (1 Bft) W-NW 292 0,000 mm 11,4 C 17,1 C 3,2 km/h (1 Bft) 100,00 %
02.07.2020 06:58 27,0 C 17,1 C 52 % 69 % 1013,1 hPa 0,0 l/m 1,6 km/h (1 Bft) W-NW 292 0,000 mm 11,4 C 17,1 C 3,2 km/h (1 Bft) 100,00 %
02.07.2020 06:57 27,0 C 17,2 C 52 % 69 % 1013,0 hPa 0,0 l/m 3,2 km/h (1 Bft) W-NW 292 0,000 mm 11,5 C 17,2 C 4,8 km/h (1 Bft) 100,00 %
02.07.2020 06:56 27,0 C 17,2 C 52 % 69 % 1013,0 hPa 0,0 l/m 1,6 km/h (1 Bft) W-SW 247 0,000 mm 11,5 C 17,2 C 1,6 km/h (1 Bft) 100,00 %
02.07.2020 06:55 27,0 C 17,2 C 52 % 69 % 1013,1 hPa 0,0 l/m 1,6 km/h (1 Bft) W 270 0,000 mm 11,5 C 17,2 C 3,2 km/h (1 Bft) 95,65 %
02.07.2020 06:54 27,0 C 17,1 C 52 % 69 % 1013,0 hPa 0,0 l/m 3,2 km/h (1 Bft) W 270 0,000 mm 11,4 C 17,1 C 6,4 km/h (2 Bft) 100,00 %
02.07.2020 06:53 27,0 C 17,1 C 52 % 69 % 1013,1 hPa 0,0 l/m 3,2 km/h (1 Bft) W 270 0,000 mm 11,4 C 17,1 C 4,8 km/h (1 Bft) 100,00 %
02.07.2020 06:52 27,0 C 17,1 C 52 % 70 % 1013,0 hPa 0,0 l/m 1,6 km/h (1 Bft) W 270 0,000 mm 11,6 C 17,1 C 4,8 km/h (1 Bft) 100,00 %
02.07.2020 06:51 27,0 C 17,1 C 52 % 70 % 1013,1 hPa 0,0 l/m 1,6 km/h (1 Bft) W 270 0,000 mm 11,6 C 17,1 C 1,6 km/h (1 Bft) 100,00 %
02.07.2020 06:50 27,0 C 17,1 C 52 % 70 % 1013,0 hPa 0,0 l/m 1,6 km/h (1 Bft) W 270 0,000 mm 11,6 C 17,1 C 3,2 km/h (1 Bft) 100,00 %
02.07.2020 06:49 26,9 C 17,1 C 52 % 70 % 1013,1 hPa 0,0 l/m 1,6 km/h (1 Bft) W 270 0,000 mm 11,6 C 17,1 C 1,6 km/h (1 Bft) 100,00 %
02.07.2020 06:48 27,0 C 17,1 C 52 % 70 % 1013,1 hPa 0,0 l/m 1,6 km/h (1 Bft) W 270 0,000 mm 11,6 C 17,1 C 1,6 km/h (1 Bft) 100,00 %
02.07.2020 06:47 26,9 C 17,1 C 52 % 70 % 1013,0 hPa 0,0 l/m 1,6 km/h (1 Bft) W 270 0,000 mm 11,6 C 17,1 C 3,2 km/h (1 Bft) 100,00 %
02.07.2020 06:46 26,9 C 17,1 C 52 % 70 % 1013,0 hPa 0,0 l/m 3,2 km/h (1 Bft) W 270 0,000 mm 11,6 C 17,1 C 4,8 km/h (1 Bft) 100,00 %
02.07.2020 06:45 26,9 C 17,1 C 52 % 70 % 1013,0 hPa 0,0 l/m 1,6 km/h (1 Bft) W-SW 247 0,000 mm 11,6 C 17,1 C 3,2 km/h (1 Bft) 100,00 %
02.07.2020 06:44 26,9 C 17,1 C 52 % 70 % 1013,0 hPa 0,0 l/m 0,0 km/h (0 Bft) W-SW 247 0,000 mm 11,6 C 17,1 C 1,6 km/h (1 Bft) 100,00 %
02.07.2020 06:43 26,9 C 17,1 C 52 % 71 % 1013,0 hPa 0,0 l/m 0,0 km/h (0 Bft) W-SW 247 0,000 mm 11,8 C 17,1 C 1,6 km/h (1 Bft) 100,00 %
02.07.2020 06:42 26,9 C 17,1 C 52 % 70 % 1012,9 hPa 0,0 l/m 1,6 km/h (1 Bft) W-SW 247 0,000 mm 11,6 C 17,1 C 3,2 km/h (1 Bft) 100,00 %
02.07.2020 06:41 26,9 C 17,2 C 52 % 70 % 1012,8 hPa 0,0 l/m 0,0 km/h (0 Bft) N 0 0,000 mm 11,7 C 17,2 C 0,0 km/h (0 Bft) 100,00 %
02.07.2020 06:40 26,9 C 17,2 C 52 % 70 % 1012,9 hPa 0,0 l/m 0,0 km/h (0 Bft) W-SW 247 0,000 mm 11,7 C 17,2 C 1,6 km/h (1 Bft) 100,00 %
02.07.2020 06:39 26,9 C 17,2 C 52 % 69 % 1013,0 hPa 0,0 l/m 1,6 km/h (1 Bft) W-SW 247 0,000 mm 11,5 C 17,2 C 3,2 km/h (1 Bft) 100,00 %
02.07.2020 06:38 26,9 C 17,2 C 52 % 69 % 1012,8 hPa 0,0 l/m 1,6 km/h (1 Bft) W-SW 247 0,000 mm 11,5 C 17,2 C 3,2 km/h (1 Bft) 95,65 %
02.07.2020 06:37 26,9 C 17,1 C 52 % 70 % 1012,9 hPa 0,0 l/m 1,6 km/h (1 Bft) W-SW 247 0,000 mm 11,6 C 17,1 C 3,2 km/h (1 Bft) 100,00 %
02.07.2020 06:36 26,9 C 17,2 C 52 % 70 % 1012,8 hPa 0,0 l/m 1,6 km/h (1 Bft) W-SW 247 0,000 mm 11,7 C 17,2 C 3,2 km/h (1 Bft) 100,00 %
02.07.2020 06:35 26,9 C 17,2 C 52 % 70 % 1012,9 hPa 0,0 l/m 0,0 km/h (0 Bft) W-SW 247 0,000 mm 11,7 C 17,2 C 1,6 km/h (1 Bft) 100,00 %
02.07.2020 06:34 26,9 C 17,2 C 52 % 70 % 1012,9 hPa 0,0 l/m 1,6 km/h (1 Bft) W-SW 247 0,000 mm 11,7 C 17,2 C 4,8 km/h (1 Bft) 100,00 %
02.07.2020 06:33 26,9 C 17,1 C 52 % 70 % 1012,8 hPa 0,0 l/m 1,6 km/h (1 Bft) W-SW 247 0,000 mm 11,6 C 17,1 C 3,2 km/h (1 Bft) 95,65 %
02.07.2020 06:32 26,9 C 17,2 C 52 % 70 % 1012,8 hPa 0,0 l/m 1,6 km/h (1 Bft) W-SW 247 0,000 mm 11,7 C 17,2 C 3,2 km/h (1 Bft) 100,00 %
02.07.2020 06:31 26,9 C 17,1 C 52 % 71 % 1012,8 hPa 0,0 l/m 1,6 km/h (1 Bft) SW 225 0,000 mm 11,8 C 17,1 C 1,6 km/h (1 Bft) 95,65 %
02.07.2020 06:30 26,9 C 17,1 C 52 % 71 % 1012,8 hPa 0,0 l/m 1,6 km/h (1 Bft) SW 225 0,000 mm 11,8 C 17,1 C 1,6 km/h (1 Bft) 95,65 %
02.07.2020 06:29 26,9 C 17,1 C 51 % 72 % 1012,7 hPa 0,0 l/m 1,6 km/h (1 Bft) SW 225 0,000 mm 12,0 C 17,1 C 3,2 km/h (1 Bft) 100,00 %
02.07.2020 06:28 26,9 C 17,1 C 51 % 72 % 1012,8 hPa 0,0 l/m 0,0 km/h (0 Bft) SW 225 0,000 mm 12,0 C 17,1 C 1,6 km/h (1 Bft) 100,00 %
02.07.2020 06:27 26,9 C 17,1 C 51 % 72 % 1012,7 hPa 0,0 l/m 0,0 km/h (0 Bft) SW 225 0,000 mm 12,0 C 17,1 C 1,6 km/h (1 Bft) 100,00 %
02.07.2020 06:26 26,9 C 16,9 C 51 % 71 % 1012,7 hPa 0,0 l/m 0,0 km/h (0 Bft) SW 225 0,000 mm 11,6 C 16,9 C 1,6 km/h (1 Bft) 95,65 %
02.07.2020 06:25 26,9 C 16,9 C 51 % 72 % 1012,7 hPa 0,0 l/m 1,6 km/h (1 Bft) SW 225 0,000 mm 11,8 C 16,9 C 1,6 km/h (1 Bft) 100,00 %
02.07.2020 06:24 26,9 C 16,8 C 51 % 72 % 1012,7 hPa 0,0 l/m 1,6 km/h (1 Bft) SW 225 0,000 mm 11,7 C 16,8 C 1,6 km/h (1 Bft) 100,00 %
02.07.2020 06:23 26,8 C 16,7 C 51 % 72 % 1012,8 hPa 0,0 l/m 0,0 km/h (0 Bft) SW 225 0,000 mm 11,6 C 16,7 C 1,6 km/h (1 Bft) 100,00 %
02.07.2020 06:22 26,8 C 16,6 C 51 % 72 % 1012,7 hPa 0,0 l/m 0,0 km/h (0 Bft) SW 225 0,000 mm 11,5 C 16,6 C 3,2 km/h (1 Bft) 100,00 %
02.07.2020 06:21 26,9 C 16,4 C 51 % 72 % 1012,7 hPa 0,0 l/m 0,0 km/h (0 Bft) N 0 0,000 mm 11,3 C 16,4 C 0,0 km/h (0 Bft) 100,00 %
02.07.2020 06:20 26,9 C 16,4 C 51 % 73 % 1012,8 hPa 0,0 l/m 1,6 km/h (1 Bft) SW 225 0,000 mm 11,5 C 16,4 C 1,6 km/h (1 Bft) 100,00 %
02.07.2020 06:19 26,8 C 16,3 C 51 % 73 % 1012,7 hPa 0,0 l/m 1,6 km/h (1 Bft) SW 225 0,000 mm 11,4 C 16,3 C 1,6 km/h (1 Bft) 100,00 %
02.07.2020 06:18 26,8 C 16,2 C 51 % 73 % 1012,6 hPa 0,0 l/m 1,6 km/h (1 Bft) SW 225 0,000 mm 11,4 C 16,2 C 3,2 km/h (1 Bft) 100,00 %
02.07.2020 06:17 26,8 C 16,1 C 51 % 73 % 1012,6 hPa 0,0 l/m 3,2 km/h (1 Bft) SW 225 0,000 mm 11,3 C 16,1 C 3,2 km/h (1 Bft) 100,00 %
02.07.2020 06:16 26,8 C 16,1 C 51 % 72 % 1012,6 hPa 0,0 l/m 3,2 km/h (1 Bft) SW 225 0,000 mm 11,0 C 16,1 C 3,2 km/h (1 Bft) 95,65 %
02.07.2020 06:15 26,8 C 16,1 C 51 % 72 % 1012,5 hPa 0,0 l/m 3,2 km/h (1 Bft) SW 225 0,000 mm 11,0 C 16,1 C 4,8 km/h (1 Bft) 100,00 %
02.07.2020 06:14 26,8 C 16,2 C 51 % 72 % 1012,5 hPa 0,0 l/m 3,2 km/h (1 Bft) SW 225 0,000 mm 11,1 C 16,2 C 3,2 km/h (1 Bft) 95,65 %
02.07.2020 06:13 26,8 C 16,2 C 51 % 72 % 1012,5 hPa 0,0 l/m 3,2 km/h (1 Bft) SW 225 0,000 mm 11,1 C 16,2 C 3,2 km/h (1 Bft) 100,00 %
02.07.2020 06:12 26,8 C 16,3 C 51 % 72 % 1012,4 hPa 0,0 l/m 4,8 km/h (1 Bft) SW 225 0,000 mm 11,2 C 16,3 C 4,8 km/h (1 Bft) 100,00 %
02.07.2020 06:11 26,8 C 16,3 C 51 % 72 % 1012,4 hPa 0,0 l/m 3,2 km/h (1 Bft) SW 225 0,000 mm 11,2 C 16,3 C 3,2 km/h (1 Bft) 95,65 %
02.07.2020 06:10 26,8 C 16,3 C 51 % 71 % 1012,5 hPa 0,0 l/m 3,2 km/h (1 Bft) W-SW 247 0,000 mm 11,0 C 16,3 C 4,8 km/h (1 Bft) 100,00 %
02.07.2020 06:09 26,8 C 16,3 C 51 % 71 % 1012,5 hPa 0,0 l/m 0,0 km/h (0 Bft) W-SW 247 0,000 mm 11,0 C 16,3 C 1,6 km/h (1 Bft) 100,00 %
02.07.2020 06:08 26,8 C 16,4 C 51 % 71 % 1012,4 hPa 0,0 l/m 1,6 km/h (1 Bft) W-SW 247 0,000 mm 11,1 C 16,4 C 1,6 km/h (1 Bft) 100,00 %
02.07.2020 06:07 26,8 C 16,4 C 51 % 71 % 1012,4 hPa 0,0 l/m 0,0 km/h (0 Bft) W-SW 247 0,000 mm 11,1 C 16,4 C 1,6 km/h (1 Bft) 95,65 %
02.07.2020 06:06 26,8 C 16,3 C 51 % 71 % 1012,4 hPa 0,0 l/m 1,6 km/h (1 Bft) W-SW 247 0,000 mm 11,0 C 16,3 C 3,2 km/h (1 Bft) 100,00 %
02.07.2020 06:05 26,8 C 16,3 C 51 % 71 % 1012,4 hPa 0,0 l/m 1,6 km/h (1 Bft) W-SW 247 0,000 mm 11,0 C 16,3 C 1,6 km/h (1 Bft) 100,00 %
02.07.2020 06:04 26,8 C 16,3 C 51 % 71 % 1012,4 hPa 0,0 l/m 1,6 km/h (1 Bft) W-SW 247 0,000 mm 11,0 C 16,3 C 3,2 km/h (1 Bft) 100,00 %
02.07.2020 06:03 26,8 C 16,3 C 51 % 71 % 1012,4 hPa 0,0 l/m 1,6 km/h (1 Bft) W 270 0,000 mm 11,0 C 16,3 C 1,6 km/h (1 Bft) 100,00 %
02.07.2020 06:02 26,8 C 16,3 C 51 % 72 % 1012,4 hPa 0,0 l/m 1,6 km/h (1 Bft) W 270 0,000 mm 11,2 C 16,3 C 3,2 km/h (1 Bft) 100,00 %
02.07.2020 06:01 26,8 C 16,3 C 51 % 72 % 1012,4 hPa 0,0 l/m 1,6 km/h (1 Bft) W 270 0,000 mm 11,2 C 16,3 C 3,2 km/h (1 Bft) 100,00 %
02.07.2020 06:00 26,8 C 16,2 C 51 % 72 % 1012,4 hPa 0,0 l/m 1,6 km/h (1 Bft) W 270 0,000 mm 11,1 C 16,2 C 3,2 km/h (1 Bft) 100,00 %
02.07.2020 05:59 26,8 C 16,2 C 51 % 72 % 1012,3 hPa 0,0 l/m 1,6 km/h (1 Bft) W-NW 292 0,000 mm 11,1 C 16,2 C 3,2 km/h (1 Bft) 95,65 %
02.07.2020 05:58 26,8 C 16,1 C 51 % 72 % 1012,3 hPa 0,0 l/m 3,2 km/h (1 Bft) W-NW 292 0,000 mm 11,0 C 16,1 C 6,4 km/h (2 Bft) 100,00 %
02.07.2020 05:57 26,8 C 16,1 C 51 % 72 % 1012,3 hPa 0,0 l/m 1,6 km/h (1 Bft) W 270 0,000 mm 11,0 C 16,1 C 3,2 km/h (1 Bft) 100,00 %
02.07.2020 05:56 26,8 C 16,0 C 51 % 73 % 1012,2 hPa 0,0 l/m 1,6 km/h (1 Bft) SW 225 0,000 mm 11,2 C 16,0 C 3,2 km/h (1 Bft) 100,00 %
02.07.2020 05:55 26,8 C 15,9 C 51 % 73 % 1012,3 hPa 0,0 l/m 1,6 km/h (1 Bft) SW 225 0,000 mm 11,1 C 15,9 C 1,6 km/h (1 Bft) 100,00 %
02.07.2020 05:54 26,8 C 15,9 C 51 % 73 % 1012,2 hPa 0,0 l/m 1,6 km/h (1 Bft) SW 225 0,000 mm 11,1 C 15,9 C 3,2 km/h (1 Bft) 100,00 %
02.07.2020 05:53 26,8 C 15,8 C 51 % 73 % 1012,2 hPa 0,0 l/m 3,2 km/h (1 Bft) SW 225 0,000 mm 11,0 C 15,8 C 4,8 km/h (1 Bft) 100,00 %
02.07.2020 05:52 26,8 C 15,8 C 51 % 73 % 1012,2 hPa 0,0 l/m 1,6 km/h (1 Bft) W-SW 247 0,000 mm 11,0 C 15,8 C 4,8 km/h (1 Bft) 95,65 %
02.07.2020 05:51 26,8 C 15,8 C 51 % 73 % 1012,2 hPa 0,0 l/m 1,6 km/h (1 Bft) W-SW 247 0,000 mm 11,0 C 15,8 C 1,6 km/h (1 Bft) 100,00 %
02.07.2020 05:50 26,8 C 15,8 C 51 % 73 % 1012,2 hPa 0,0 l/m 1,6 km/h (1 Bft) W-SW 247 0,000 mm 11,0 C 15,8 C 1,6 km/h (1 Bft) 100,00 %
02.07.2020 05:49 26,8 C 15,7 C 51 % 73 % 1012,1 hPa 0,0 l/m 3,2 km/h (1 Bft) W 270 0,000 mm 10,9 C 15,7 C 6,4 km/h (2 Bft) 100,00 %
02.07.2020 05:48 26,8 C 15,7 C 51 % 73 % 1012,0 hPa 0,0 l/m 1,6 km/h (1 Bft) W 270 0,000 mm 10,9 C 15,7 C 3,2 km/h (1 Bft) 95,65 %
02.07.2020 05:47 26,8 C 15,7 C 51 % 73 % 1012,1 hPa 0,0 l/m 1,6 km/h (1 Bft) W 270 0,000 mm 10,9 C 15,7 C 3,2 km/h (1 Bft) 95,65 %
02.07.2020 05:46 26,8 C 15,6 C 51 % 73 % 1012,1 hPa 0,0 l/m 1,6 km/h (1 Bft) W-NW 292 0,000 mm 10,8 C 15,6 C 3,2 km/h (1 Bft) 100,00 %
02.07.2020 05:45 26,8 C 15,6 C 51 % 73 % 1012,0 hPa 0,0 l/m 1,6 km/h (1 Bft) SW 225 0,000 mm 10,8 C 15,6 C 1,6 km/h (1 Bft) 100,00 %
02.07.2020 05:44 26,8 C 15,6 C 51 % 73 % 1012,0 hPa 0,0 l/m 1,6 km/h (1 Bft) W-SW 247 0,000 mm 10,8 C 15,6 C 3,2 km/h (1 Bft) 95,65 %
02.07.2020 05:43 26,8 C 15,6 C 51 % 73 % 1012,0 hPa 0,0 l/m 1,6 km/h (1 Bft) W-SW 247 0,000 mm 10,8 C 15,6 C 3,2 km/h (1 Bft) 95,65 %
02.07.2020 05:42 26,8 C 15,6 C 51 % 72 % 1011,9 hPa 0,0 l/m 1,6 km/h (1 Bft) W-SW 247 0,000 mm 10,6 C 15,6 C 1,6 km/h (1 Bft) 95,65 %
02.07.2020 05:41 26,8 C 15,7 C 51 % 73 % 1011,9 hPa 0,0 l/m 1,6 km/h (1 Bft) W 270 0,000 mm 10,9 C 15,7 C 1,6 km/h (1 Bft) 100,00 %
02.07.2020 05:40 26,8 C 15,6 C 51 % 73 % 1011,9 hPa 0,0 l/m 1,6 km/h (1 Bft) W 270 0,000 mm 10,8 C 15,6 C 1,6 km/h (1 Bft) 100,00 %
02.07.2020 05:39 26,8 C 15,7 C 51 % 73 % 1011,8 hPa 0,0 l/m 1,6 km/h (1 Bft) W 270 0,000 mm 10,9 C 15,7 C 3,2 km/h (1 Bft) 100,00 %
02.07.2020 05:38 26,8 C 15,6 C 51 % 74 % 1011,9 hPa 0,0 l/m 1,6 km/h (1 Bft) SW 225 0,000 mm 11,0 C 15,6 C 3,2 km/h (1 Bft) 100,00 %
02.07.2020 05:37 26,8 C 15,6 C 51 % 74 % 1011,9 hPa 0,0 l/m 3,2 km/h (1 Bft) W-NW 292 0,000 mm 11,0 C 15,6 C 4,8 km/h (1 Bft) 95,65 %
02.07.2020 05:36 26,8 C 15,5 C 51 % 74 % 1011,9 hPa 0,0 l/m 3,2 km/h (1 Bft) W-SW 247 0,000 mm 10,9 C 15,5 C 6,4 km/h (2 Bft) 100,00 %
02.07.2020 05:35 26,8 C 15,4 C 51 % 74 % 1011,8 hPa 0,0 l/m 1,6 km/h (1 Bft) SW 225 0,000 mm 10,8 C 15,4 C 3,2 km/h (1 Bft) 95,65 %
02.07.2020 05:34 26,8 C 15,4 C 51 % 74 % 1011,8 hPa 0,0 l/m 3,2 km/h (1 Bft) SW 225 0,000 mm 10,8 C 15,4 C 3,2 km/h (1 Bft) 100,00 %
02.07.2020 05:33 26,8 C 15,4 C 51 % 74 % 1011,8 hPa 0,0 l/m 1,6 km/h (1 Bft) SW 225 0,000 mm 10,8 C 15,4 C 3,2 km/h (1 Bft) 95,65 %
02.07.2020 05:32 26,8 C 15,4 C 51 % 74 % 1011,8 hPa 0,0 l/m 1,6 km/h (1 Bft) S 180 0,000 mm 10,8 C 15,4 C 3,2 km/h (1 Bft) 100,00 %
02.07.2020 05:31 26,8 C 15,3 C 51 % 74 % 1011,8 hPa 0,0 l/m 1,6 km/h (1 Bft) SW 225 0,000 mm 10,7 C 15,3 C 3,2 km/h (1 Bft) 100,00 %
02.07.2020 05:30 26,8 C 15,3 C 51 % 74 % 1011,7 hPa 0,0 l/m 1,6 km/h (1 Bft) SW 225 0,000 mm 10,7 C 15,3 C 3,2 km/h (1 Bft) 100,00 %
02.07.2020 05:29 26,8 C 15,3 C 51 % 74 % 1011,8 hPa 0,0 l/m 3,2 km/h (1 Bft) SW 225 0,000 mm 10,7 C 15,3 C 6,4 km/h (2 Bft) 100,00 %
02.07.2020 05:28 26,8 C 15,3 C 51 % 74 % 1011,7 hPa 0,0 l/m 6,4 km/h (2 Bft) SW 225 0,000 mm 10,7 C 15,3 C 9,7 km/h (2 Bft) 100,00 %
02.07.2020 05:27 26,8 C 15,3 C 51 % 75 % 1011,6 hPa 0,0 l/m 1,6 km/h (1 Bft) SW 225 0,000 mm 10,9 C 15,3 C 4,8 km/h (1 Bft) 100,00 %
02.07.2020 05:26 26,8 C 15,2 C 51 % 74 % 1011,7 hPa 0,0 l/m 3,2 km/h (1 Bft) SW 225 0,000 mm 10,6 C 15,2 C 6,4 km/h (2 Bft) 100,00 %
02.07.2020 05:25 26,8 C 15,3 C 51 % 75 % 1011,6 hPa 0,0 l/m 4,8 km/h (1 Bft) SW 225 0,000 mm 10,9 C 15,3 C 6,4 km/h (2 Bft) 100,00 %
02.07.2020 05:24 26,8 C 15,2 C 51 % 75 % 1011,6 hPa 0,0 l/m 6,4 km/h (2 Bft) S-SW 202 0,000 mm 10,8 C 15,2 C 9,7 km/h (2 Bft) 100,00 %
02.07.2020 05:23 26,8 C 15,2 C 51 % 75 % 1011,6 hPa 0,0 l/m 4,8 km/h (1 Bft) SW 225 0,000 mm 10,8 C 15,2 C 8,0 km/h (2 Bft) 100,00 %
02.07.2020 05:22 26,8 C 15,2 C 51 % 75 % 1011,6 hPa 0,0 l/m 3,2 km/h (1 Bft) S-SW 202 0,000 mm 10,8 C 15,2 C 8,0 km/h (2 Bft) 100,00 %
02.07.2020 05:21 26,8 C 15,2 C 52 % 75 % 1011,6 hPa 0,0 l/m 1,6 km/h (1 Bft) SW 225 0,000 mm 10,8 C 15,2 C 3,2 km/h (1 Bft) 95,65 %
02.07.2020 05:20 26,8 C 15,2 C 52 % 75 % 1011,5 hPa 0,0 l/m 6,4 km/h (2 Bft) SW 225 0,000 mm 10,8 C 15,2 C 11,3 km/h (2 Bft) 100,00 %
02.07.2020 05:19 26,8 C 15,2 C 52 % 75 % 1011,5 hPa 0,0 l/m 8,0 km/h (2 Bft) SW 225 0,000 mm 10,8 C 14,3 C 11,3 km/h (2 Bft) 100,00 %
02.07.2020 05:18 26,8 C 15,1 C 52 % 75 % 1011,5 hPa 0,0 l/m 6,4 km/h (2 Bft) SW 225 0,000 mm 10,7 C 15,1 C 8,0 km/h (2 Bft) 100,00 %
02.07.2020 05:17 26,8 C 15,1 C 52 % 75 % 1011,5 hPa 0,0 l/m 4,8 km/h (1 Bft) SW 225 0,000 mm 10,7 C 15,1 C 6,4 km/h (2 Bft) 100,00 %
02.07.2020 05:16 26,8 C 15,1 C 52 % 75 % 1011,5 hPa 0,0 l/m 6,4 km/h (2 Bft) SW 225 0,000 mm 10,7 C 15,1 C 9,7 km/h (2 Bft) 100,00 %
02.07.2020 05:15 26,8 C 15,2 C 52 % 74 % 1011,5 hPa 0,0 l/m 6,4 km/h (2 Bft) SW 225 0,000 mm 10,6 C 15,2 C 9,7 km/h (2 Bft) 100,00 %
02.07.2020 05:14 26,8 C 15,2 C 52 % 74 % 1011,4 hPa 0,0 l/m 6,4 km/h (2 Bft) SW 225 0,000 mm 10,6 C 15,2 C 8,0 km/h (2 Bft) 95,65 %
02.07.2020 05:13 26,8 C 15,2 C 52 % 75 % 1011,5 hPa 0,0 l/m 4,8 km/h (1 Bft) S-SW 202 0,000 mm 10,8 C 15,2 C 8,0 km/h (2 Bft) 100,00 %
02.07.2020 05:12 26,8 C 15,2 C 52 % 75 % 1011,5 hPa 0,0 l/m 4,8 km/h (1 Bft) S-SW 202 0,000 mm 10,8 C 15,2 C 8,0 km/h (2 Bft) 100,00 %
02.07.2020 05:11 26,8 C 15,1 C 52 % 75 % 1011,5 hPa 0,0 l/m 4,8 km/h (1 Bft) SW 225 0,000 mm 10,7 C 15,1 C 8,0 km/h (2 Bft) 100,00 %
02.07.2020 05:10 26,8 C 15,1 C 52 % 75 % 1011,5 hPa 0,0 l/m 4,8 km/h (1 Bft) SW 225 0,000 mm 10,7 C 15,1 C 6,4 km/h (2 Bft) 100,00 %
02.07.2020 05:09 26,8 C 15,1 C 52 % 75 % 1011,5 hPa 0,0 l/m 4,8 km/h (1 Bft) S-SW 202 0,000 mm 10,7 C 15,1 C 6,4 km/h (2 Bft) 100,00 %
02.07.2020 05:08 26,8 C 15,1 C 52 % 75 % 1011,5 hPa 0,0 l/m 3,2 km/h (1 Bft) SW 225 0,000 mm 10,7 C 15,1 C 6,4 km/h (2 Bft) 100,00 %
02.07.2020 05:07 26,8 C 15,1 C 52 % 74 % 1011,6 hPa 0,0 l/m 4,8 km/h (1 Bft) SW 225 0,000 mm 10,5 C 15,1 C 6,4 km/h (2 Bft) 100,00 %
02.07.2020 05:06 26,8 C 15,1 C 52 % 74 % 1011,6 hPa 0,0 l/m 3,2 km/h (1 Bft) SW 225 0,000 mm 10,5 C 15,1 C 6,4 km/h (2 Bft) 100,00 %
02.07.2020 05:05 26,8 C 15,1 C 52 % 74 % 1011,5 hPa 0,0 l/m 3,2 km/h (1 Bft) SW 225 0,000 mm 10,5 C 15,1 C 6,4 km/h (2 Bft) 100,00 %
02.07.2020 05:04 26,8 C 15,1 C 52 % 74 % 1011,5 hPa 0,0 l/m 1,6 km/h (1 Bft) SW 225 0,000 mm 10,5 C 15,1 C 3,2 km/h (1 Bft) 100,00 %
02.07.2020 05:03 26,8 C 15,1 C 52 % 74 % 1011,5 hPa 0,0 l/m 4,8 km/h (1 Bft) SW 225 0,000 mm 10,5 C 15,1 C 8,0 km/h (2 Bft) 100,00 %
02.07.2020 05:02 26,8 C 15,2 C 52 % 74 % 1011,5 hPa 0,0 l/m 4,8 km/h (1 Bft) SW 225 0,000 mm 10,6 C 15,2 C 6,4 km/h (2 Bft) 100,00 %
02.07.2020 05:01 26,8 C 15,2 C 52 % 74 % 1011,5 hPa 0,0 l/m 3,2 km/h (1 Bft) SW 225 0,000 mm 10,6 C 15,2 C 8,0 km/h (2 Bft) 100,00 %
02.07.2020 05:00 26,8 C 15,2 C 52 % 74 % 1011,5 hPa 0,0 l/m 3,2 km/h (1 Bft) SW 225 0,000 mm 10,6 C 15,2 C 4,8 km/h (1 Bft) 100,00 %
02.07.2020 04:59 26,8 C 15,2 C 52 % 74 % 1011,6 hPa 0,0 l/m 1,6 km/h (1 Bft) SW 225 0,000 mm 10,6 C 15,2 C 4,8 km/h (1 Bft) 95,65 %
02.07.2020 04:58 26,8 C 15,3 C 52 % 74 % 1011,5 hPa 0,0 l/m 1,6 km/h (1 Bft) W-SW 247 0,000 mm 10,7 C 15,3 C 3,2 km/h (1 Bft) 100,00 %
02.07.2020 04:57 26,8 C 15,3 C 52 % 74 % 1011,5 hPa 0,0 l/m 1,6 km/h (1 Bft) SW 225 0,000 mm 10,7 C 15,3 C 3,2 km/h (1 Bft) 95,65 %
02.07.2020 04:56 26,8 C 15,3 C 52 % 74 % 1011,5 hPa 0,0 l/m 1,6 km/h (1 Bft) W 270 0,000 mm 10,7 C 15,3 C 3,2 km/h (1 Bft) 100,00 %
02.07.2020 04:55 26,8 C 15,3 C 52 % 74 % 1011,5 hPa 0,0 l/m 1,6 km/h (1 Bft) W-NW 292 0,000 mm 10,7 C 15,3 C 3,2 km/h (1 Bft) 100,00 %
02.07.2020 04:54 26,8 C 15,3 C 52 % 74 % 1011,5 hPa 0,0 l/m 1,6 km/h (1 Bft) W-NW 292 0,000 mm 10,7 C 15,3 C 4,8 km/h (1 Bft) 100,00 %
02.07.2020 04:53 26,8 C 15,3 C 52 % 74 % 1011,5 hPa 0,0 l/m 3,2 km/h (1 Bft) W 270 0,000 mm 10,7 C 15,3 C 4,8 km/h (1 Bft) 100,00 %
02.07.2020 04:52 26,8 C 15,3 C 52 % 74 % 1011,3 hPa 0,0 l/m 1,6 km/h (1 Bft) SW 225 0,000 mm 10,7 C 15,3 C 3,2 km/h (1 Bft) 100,00 %
02.07.2020 04:51 26,8 C 15,3 C 52 % 74 % 1011,3 hPa 0,0 l/m 3,2 km/h (1 Bft) SW 225 0,000 mm 10,7 C 15,3 C 4,8 km/h (1 Bft) 100,00 %
02.07.2020 04:50 26,8 C 15,4 C 52 % 74 % 1011,3 hPa 0,0 l/m 3,2 km/h (1 Bft) S-SW 202 0,000 mm 10,8 C 15,4 C 4,8 km/h (1 Bft) 100,00 %
02.07.2020 04:49 26,8 C 15,4 C 52 % 74 % 1011,3 hPa 0,0 l/m 6,4 km/h (2 Bft) SW 225 0,000 mm 10,8 C 15,4 C 8,0 km/h (2 Bft) 100,00 %
02.07.2020 04:48 26,8 C 15,4 C 52 % 74 % 1011,3 hPa 0,0 l/m 6,4 km/h (2 Bft) SW 225 0,000 mm 10,8 C 15,4 C 8,0 km/h (2 Bft) 100,00 %
02.07.2020 04:47 26,8 C 15,4 C 52 % 74 % 1011,4 hPa 0,0 l/m 3,2 km/h (1 Bft) SW 225 0,000 mm 10,8 C 15,4 C 6,4 km/h (2 Bft) 100,00 %
02.07.2020 04:46 26,8 C 15,4 C 52 % 74 % 1011,4 hPa 0,0 l/m 4,8 km/h (1 Bft) SW 225 0,000 mm 10,8 C 15,4 C 9,7 km/h (2 Bft) 100,00 %
02.07.2020 04:45 26,8 C 15,4 C 52 % 74 % 1011,3 hPa 0,0 l/m 4,8 km/h (1 Bft) SW 225 0,000 mm 10,8 C 15,4 C 8,0 km/h (2 Bft) 100,00 %
02.07.2020 04:44 26,8 C 15,4 C 52 % 74 % 1011,4 hPa 0,0 l/m 3,2 km/h (1 Bft) SW 225 0,000 mm 10,8 C 15,4 C 6,4 km/h (2 Bft) 100,00 %
02.07.2020 04:43 26,8 C 15,4 C 52 % 74 % 1011,3 hPa 0,0 l/m 4,8 km/h (1 Bft) SW 225 0,000 mm 10,8 C 15,4 C 6,4 km/h (2 Bft) 100,00 %
02.07.2020 04:42 26,9 C 15,4 C 52 % 74 % 1011,3 hPa 0,0 l/m 3,2 km/h (1 Bft) SW 225 0,000 mm 10,8 C 15,4 C 8,0 km/h (2 Bft) 100,00 %
02.07.2020 04:41 26,9 C 15,4 C 52 % 74 % 1011,4 hPa 0,0 l/m 6,4 km/h (2 Bft) SW 225 0,000 mm 10,8 C 15,4 C 8,0 km/h (2 Bft) 100,00 %
02.07.2020 04:40 26,8 C 15,4 C 52 % 74 % 1011,3 hPa 0,0 l/m 9,7 km/h (2 Bft) SW 225 0,000 mm 10,8 C 13,7 C 11,3 km/h (2 Bft) 100,00 %
02.07.2020 04:39 26,8 C 15,4 C 52 % 74 % 1011,3 hPa 0,0 l/m 8,0 km/h (2 Bft) SW 225 0,000 mm 10,8 C 14,5 C 9,7 km/h (2 Bft) 100,00 %
02.07.2020 04:38 26,8 C 15,4 C 52 % 74 % 1011,3 hPa 0,0 l/m 8,0 km/h (2 Bft) S-SW 202 0,000 mm 10,8 C 14,5 C 11,3 km/h (2 Bft) 95,65 %
02.07.2020 04:37 26,8 C 15,4 C 52 % 74 % 1011,3 hPa 0,0 l/m 6,4 km/h (2 Bft) S-SW 202 0,000 mm 10,8 C 15,4 C 8,0 km/h (2 Bft) 100,00 %
02.07.2020 04:36 26,8 C 15,4 C 52 % 75 % 1011,4 hPa 0,0 l/m 4,8 km/h (1 Bft) SW 225 0,000 mm 11,0 C 15,4 C 8,0 km/h (2 Bft) 100,00 %
02.07.2020 04:35 26,8 C 15,4 C 52 % 75 % 1011,3 hPa 0,0 l/m 3,2 km/h (1 Bft) S-SW 202 0,000 mm 11,0 C 15,4 C 4,8 km/h (1 Bft) 100,00 %
02.07.2020 04:34 26,8 C 15,4 C 52 % 74 % 1011,3 hPa 0,0 l/m 3,2 km/h (1 Bft) SW 225 0,000 mm 10,8 C 15,4 C 8,0 km/h (2 Bft) 100,00 %
02.07.2020 04:33 26,8 C 15,5 C 52 % 75 % 1011,3 hPa 0,0 l/m 8,0 km/h (2 Bft) SW 225 0,000 mm 11,1 C 14,6 C 9,7 km/h (2 Bft) 100,00 %
02.07.2020 04:32 26,8 C 15,6 C 52 % 76 % 1011,2 hPa 0,0 l/m 8,0 km/h (2 Bft) S-SW 202 0,000 mm 11,4 C 14,7 C 9,7 km/h (2 Bft) 100,00 %
02.07.2020 04:31 26,8 C 15,5 C 52 % 77 % 1011,2 hPa 0,0 l/m 4,8 km/h (1 Bft) S-SW 202 0,000 mm 11,5 C 15,5 C 9,7 km/h (2 Bft) 100,00 %
02.07.2020 04:30 26,8 C 15,4 C 52 % 77 % 1011,3 hPa 0,0 l/m 3,2 km/h (1 Bft) W-NW 292 0,000 mm 11,4 C 15,4 C 4,8 km/h (1 Bft) 100,00 %
02.07.2020 04:29 26,9 C 15,4 C 52 % 77 % 1011,3 hPa 0,0 l/m 4,8 km/h (1 Bft) W 270 0,000 mm 11,4 C 15,4 C 6,4 km/h (2 Bft) 100,00 %
02.07.2020 04:28 26,9 C 15,3 C 52 % 77 % 1011,4 hPa 0,0 l/m 3,2 km/h (1 Bft) W-NW 292 0,000 mm 11,3 C 15,3 C 4,8 km/h (1 Bft) 95,65 %
02.07.2020 04:27 26,9 C 15,3 C 52 % 77 % 1011,2 hPa 0,0 l/m 3,2 km/h (1 Bft) W-NW 292 0,000 mm 11,3 C 15,3 C 4,8 km/h (1 Bft) 100,00 %
02.07.2020 04:26 26,9 C 15,2 C 52 % 77 % 1011,2 hPa 0,0 l/m 3,2 km/h (1 Bft) SW 225 0,000 mm 11,2 C 15,2 C 4,8 km/h (1 Bft) 95,65 %
02.07.2020 04:25 26,9 C 15,3 C 52 % 77 % 1011,2 hPa 0,0 l/m 4,8 km/h (1 Bft) S-SW 202 0,000 mm 11,3 C 15,3 C 6,4 km/h (2 Bft) 100,00 %
02.07.2020 04:24 26,9 C 15,3 C 52 % 78 % 1011,2 hPa 0,0 l/m 6,4 km/h (2 Bft) S-SW 202 0,000 mm 11,5 C 15,3 C 8,0 km/h (2 Bft) 100,00 %
02.07.2020 04:23 26,8 C 15,3 C 52 % 78 % 1011,2 hPa 0,0 l/m 8,0 km/h (2 Bft) S-SW 202 0,000 mm 11,5 C 14,4 C 8,0 km/h (2 Bft) 100,00 %
02.07.2020 04:22 26,8 C 15,3 C 52 % 78 % 1011,2 hPa 0,0 l/m 8,0 km/h (2 Bft) S-SW 202 0,000 mm 11,5 C 14,4 C 9,7 km/h (2 Bft) 100,00 %
02.07.2020 04:21 26,8 C 15,3 C 52 % 78 % 1011,2 hPa 0,0 l/m 6,4 km/h (2 Bft) S-SW 202 0,000 mm 11,5 C 15,3 C 8,0 km/h (2 Bft) 100,00 %
02.07.2020 04:20 26,9 C 15,3 C 52 % 79 % 1011,2 hPa 0,0 l/m 6,4 km/h (2 Bft) SW 225 0,000 mm 11,7 C 15,3 C 8,0 km/h (2 Bft) 91,30 %
02.07.2020 04:19 26,9 C 15,2 C 52 % 79 % 1011,2 hPa 0,0 l/m 6,4 km/h (2 Bft) SW 225 0,000 mm 11,6 C 15,2 C 8,0 km/h (2 Bft) 100,00 %
02.07.2020 04:18 26,8 C 15,2 C 52 % 79 % 1011,2 hPa 0,0 l/m 6,4 km/h (2 Bft) SW 225 0,000 mm 11,6 C 15,2 C 8,0 km/h (2 Bft) 100,00 %
02.07.2020 04:17 26,9 C 15,2 C 52 % 79 % 1011,2 hPa 0,0 l/m 3,2 km/h (1 Bft) SW 225 0,000 mm 11,6 C 15,2 C 4,8 km/h (1 Bft) 100,00 %
02.07.2020 04:16 26,9 C 15,1 C 52 % 79 % 1011,2 hPa 0,0 l/m 4,8 km/h (1 Bft) S-SW 202 0,000 mm 11,5 C 15,1 C 6,4 km/h (2 Bft) 95,65 %
02.07.2020 04:15 26,8 C 15,0 C 52 % 79 % 1011,2 hPa 0,0 l/m 4,8 km/h (1 Bft) SW 225 0,000 mm 11,4 C 15,0 C 6,4 km/h (2 Bft) 100,00 %
02.07.2020 04:14 26,9 C 14,9 C 52 % 78 % 1011,3 hPa 0,0 l/m 4,8 km/h (1 Bft) SW 225 0,000 mm 11,1 C 14,9 C 6,4 km/h (2 Bft) 100,00 %
02.07.2020 04:13 26,9 C 14,9 C 52 % 78 % 1011,2 hPa 0,0 l/m 6,4 km/h (2 Bft) S-SW 202 0,000 mm 11,1 C 14,9 C 8,0 km/h (2 Bft) 95,65 %
02.07.2020 04:12 26,8 C 15,0 C 52 % 79 % 1011,2 hPa 0,0 l/m 6,4 km/h (2 Bft) S-SW 202 0,000 mm 11,4 C 15,0 C 8,0 km/h (2 Bft) 100,00 %
02.07.2020 04:11 26,9 C 14,9 C 52 % 79 % 1011,3 hPa 0,0 l/m 4,8 km/h (1 Bft) SW 225 0,000 mm 11,3 C 14,9 C 6,4 km/h (2 Bft) 100,00 %
02.07.2020 04:10 26,8 C 14,9 C 52 % 79 % 1011,3 hPa 0,0 l/m 3,2 km/h (1 Bft) SW 225 0,000 mm 11,3 C 14,9 C 6,4 km/h (2 Bft) 100,00 %
02.07.2020 04:09 26,9 C 14,8 C 52 % 78 % 1011,3 hPa 0,0 l/m 1,6 km/h (1 Bft) W-SW 247 0,000 mm 11,0 C 14,8 C 3,2 km/h (1 Bft) 100,00 %
02.07.2020 04:08 26,9 C 14,7 C 52 % 77 % 1011,3 hPa 0,0 l/m 3,2 km/h (1 Bft) SW 225 0,000 mm 10,7 C 14,7 C 4,8 km/h (1 Bft) 95,65 %
02.07.2020 04:07 26,9 C 14,7 C 52 % 76 % 1011,4 hPa 0,0 l/m 4,8 km/h (1 Bft) S-SW 202 0,000 mm 10,5 C 14,7 C 6,4 km/h (2 Bft) 100,00 %
02.07.2020 04:06 26,9 C 14,7 C 52 % 76 % 1011,4 hPa 0,0 l/m 4,8 km/h (1 Bft) SW 225 0,000 mm 10,5 C 14,7 C 6,4 km/h (2 Bft) 100,00 %
02.07.2020 04:05 26,9 C 14,7 C 52 % 76 % 1011,4 hPa 0,0 l/m 6,4 km/h (2 Bft) SW 225 0,000 mm 10,5 C 14,7 C 6,4 km/h (2 Bft) 100,00 %
02.07.2020 04:04 26,9 C 14,7 C 52 % 76 % 1011,4 hPa 0,0 l/m 4,8 km/h (1 Bft) S-SW 202 0,000 mm 10,5 C 14,7 C 6,4 km/h (2 Bft) 100,00 %
02.07.2020 04:03 26,9 C 14,7 C 52 % 76 % 1011,3 hPa 0,0 l/m 4,8 km/h (1 Bft) S-SW 202 0,000 mm 10,5 C 14,7 C 6,4 km/h (2 Bft) 100,00 %
02.07.2020 04:02 26,9 C 14,7 C 52 % 76 % 1011,4 hPa 0,0 l/m 6,4 km/h (2 Bft) S-SW 202 0,000 mm 10,5 C 14,7 C 8,0 km/h (2 Bft) 100,00 %
02.07.2020 04:01 26,9 C 14,8 C 52 % 76 % 1011,4 hPa 0,0 l/m 6,4 km/h (2 Bft) S-SW 202 0,000 mm 10,6 C 14,8 C 6,4 km/h (2 Bft) 100,00 %
02.07.2020 04:00 26,9 C 14,8 C 52 % 76 % 1011,4 hPa 0,0 l/m 4,8 km/h (1 Bft) SW 225 0,000 mm 10,6 C 14,8 C 6,4 km/h (2 Bft) 100,00 %
02.07.2020 03:59 26,9 C 14,8 C 52 % 76 % 1011,4 hPa 0,0 l/m 6,4 km/h (2 Bft) S-SW 202 0,000 mm 10,6 C 14,8 C 6,4 km/h (2 Bft) 100,00 %
02.07.2020 03:58 26,9 C 14,8 C 52 % 76 % 1011,4 hPa 0,0 l/m 4,8 km/h (1 Bft) S-SW 202 0,000 mm 10,6 C 14,8 C 6,4 km/h (2 Bft) 100,00 %
02.07.2020 03:57 26,9 C 14,8 C 52 % 76 % 1011,4 hPa 0,0 l/m 4,8 km/h (1 Bft) S-SW 202 0,000 mm 10,6 C 14,8 C 6,4 km/h (2 Bft) 100,00 %
02.07.2020 03:56 26,9 C 14,9 C 52 % 76 % 1011,4 hPa 0,0 l/m 4,8 km/h (1 Bft) S-SW 202 0,000 mm 10,7 C 14,9 C 8,0 km/h (2 Bft) 95,65 %
02.07.2020 03:55 26,9 C 14,9 C 52 % 76 % 1011,4 hPa 0,0 l/m 4,8 km/h (1 Bft) SW 225 0,000 mm 10,7 C 14,9 C 6,4 km/h (2 Bft) 100,00 %
02.07.2020 03:54 26,9 C 14,9 C 52 % 76 % 1011,4 hPa 0,0 l/m 4,8 km/h (1 Bft) SW 225 0,000 mm 10,7 C 14,9 C 6,4 km/h (2 Bft) 100,00 %
02.07.2020 03:53 26,8 C 14,9 C 52 % 76 % 1011,5 hPa 0,0 l/m 4,8 km/h (1 Bft) SW 225 0,000 mm 10,7 C 14,9 C 6,4 km/h (2 Bft) 100,00 %
02.07.2020 03:52 26,8 C 14,8 C 52 % 76 % 1011,4 hPa 0,0 l/m 4,8 km/h (1 Bft) S-SW 202 0,000 mm 10,6 C 14,8 C 6,4 km/h (2 Bft) 100,00 %
02.07.2020 03:51 26,9 C 14,9 C 52 % 76 % 1011,4 hPa 0,0 l/m 4,8 km/h (1 Bft) S-SW 202 0,000 mm 10,7 C 14,9 C 6,4 km/h (2 Bft) 100,00 %
02.07.2020 03:50 26,9 C 14,9 C 52 % 76 % 1011,4 hPa 0,0 l/m 4,8 km/h (1 Bft) S-SW 202 0,000 mm 10,7 C 14,9 C 6,4 km/h (2 Bft) 100,00 %
02.07.2020 03:49 26,8 C 14,9 C 52 % 76 % 1011,6 hPa 0,0 l/m 4,8 km/h (1 Bft) SW 225 0,000 mm 10,7 C 14,9 C 4,8 km/h (1 Bft) 100,00 %
02.07.2020 03:48 26,8 C 14,9 C 52 % 76 % 1011,5 hPa 0,0 l/m 4,8 km/h (1 Bft) SW 225 0,000 mm 10,7 C 14,9 C 6,4 km/h (2 Bft) 100,00 %
02.07.2020 03:47 26,9 C 14,9 C 52 % 75 % 1011,5 hPa 0,0 l/m 4,8 km/h (1 Bft) SW 225 0,000 mm 10,5 C 14,9 C 4,8 km/h (1 Bft) 100,00 %
02.07.2020 03:46 26,9 C 14,9 C 52 % 75 % 1011,5 hPa 0,0 l/m 4,8 km/h (1 Bft) SW 225 0,000 mm 10,5 C 14,9 C 4,8 km/h (1 Bft) 95,65 %
02.07.2020 03:45 26,8 C 14,9 C 52 % 76 % 1011,5 hPa 0,0 l/m 3,2 km/h (1 Bft) SW 225 0,000 mm 10,7 C 14,9 C 4,8 km/h (1 Bft) 95,65 %
02.07.2020 03:44 26,9 C 14,9 C 52 % 76 % 1011,4 hPa 0,0 l/m 4,8 km/h (1 Bft) SW 225 0,000 mm 10,7 C 14,9 C 4,8 km/h (1 Bft) 100,00 %
02.07.2020 03:43 26,9 C 14,8 C 52 % 75 % 1011,5 hPa 0,0 l/m 4,8 km/h (1 Bft) SW 225 0,000 mm 10,4 C 14,8 C 6,4 km/h (2 Bft) 100,00 %
02.07.2020 03:42 26,9 C 14,9 C 52 % 75 % 1011,5 hPa 0,0 l/m 4,8 km/h (1 Bft) SW 225 0,000 mm 10,5 C 14,9 C 6,4 km/h (2 Bft) 100,00 %
02.07.2020 03:41 26,9 C 14,9 C 52 % 75 % 1011,5 hPa 0,0 l/m 4,8 km/h (1 Bft) S-SW 202 0,000 mm 10,5 C 14,9 C 6,4 km/h (2 Bft) 100,00 %
02.07.2020 03:40 26,9 C 15,0 C 52 % 75 % 1011,4 hPa 0,0 l/m 4,8 km/h (1 Bft) S-SW 202 0,000 mm 10,6 C 15,0 C 4,8 km/h (1 Bft) 100,00 %
02.07.2020 03:39 26,9 C 15,0 C 52 % 75 % 1011,6 hPa 0,0 l/m 6,4 km/h (2 Bft) S-SW 202 0,000 mm 10,6 C 15,0 C 6,4 km/h (2 Bft) 100,00 %
02.07.2020 03:38 26,9 C 15,1 C 52 % 75 % 1011,5 hPa 0,0 l/m 6,4 km/h (2 Bft) SW 225 0,000 mm 10,7 C 15,1 C 8,0 km/h (2 Bft) 100,00 %
02.07.2020 03:37 26,9 C 15,2 C 52 % 75 % 1011,5 hPa 0,0 l/m 6,4 km/h (2 Bft) SW 225 0,000 mm 10,8 C 15,2 C 8,0 km/h (2 Bft) 100,00 %
02.07.2020 03:36 26,9 C 15,2 C 52 % 75 % 1011,4 hPa 0,0 l/m 6,4 km/h (2 Bft) SW 225 0,000 mm 10,8 C 15,2 C 8,0 km/h (2 Bft) 100,00 %
02.07.2020 03:35 26,9 C 15,3 C 52 % 74 % 1011,4 hPa 0,0 l/m 6,4 km/h (2 Bft) S-SW 202 0,000 mm 10,7 C 15,3 C 6,4 km/h (2 Bft) 95,65 %
02.07.2020 03:34 26,9 C 15,3 C 52 % 75 % 1011,4 hPa 0,0 l/m 6,4 km/h (2 Bft) S-SW 202 0,000 mm 10,9 C 15,3 C 8,0 km/h (2 Bft) 100,00 %
02.07.2020 03:33 26,9 C 15,4 C 52 % 75 % 1011,5 hPa 0,0 l/m 4,8 km/h (1 Bft) SW 225 0,000 mm 11,0 C 15,4 C 8,0 km/h (2 Bft) 95,65 %
02.07.2020 03:32 26,8 C 15,4 C 52 % 75 % 1011,6 hPa 0,0 l/m 6,4 km/h (2 Bft) SW 225 0,000 mm 11,0 C 15,4 C 8,0 km/h (2 Bft) 95,65 %
02.07.2020 03:31 26,9 C 15,4 C 52 % 75 % 1011,6 hPa 0,0 l/m 4,8 km/h (1 Bft) SW 225 0,000 mm 11,0 C 15,4 C 8,0 km/h (2 Bft) 100,00 %
02.07.2020 03:30 26,9 C 15,4 C 52 % 75 % 1011,6 hPa 0,0 l/m 1,6 km/h (1 Bft) S-SW 202 0,000 mm 11,0 C 15,4 C 3,2 km/h (1 Bft) 100,00 %
02.07.2020 03:29 26,9 C 15,3 C 52 % 76 % 1011,7 hPa 0,0 l/m 1,6 km/h (1 Bft) SW 225 0,000 mm 11,1 C 15,3 C 6,4 km/h (2 Bft) 100,00 %
02.07.2020 03:28 26,9 C 15,3 C 52 % 76 % 1011,7 hPa 0,0 l/m 1,6 km/h (1 Bft) W-SW 247 0,000 mm 11,1 C 15,3 C 3,2 km/h (1 Bft) 100,00 %
02.07.2020 03:27 26,9 C 15,2 C 52 % 75 % 1011,6 hPa 0,0 l/m 3,2 km/h (1 Bft) W-SW 247 0,000 mm 10,8 C 15,2 C 4,8 km/h (1 Bft) 95,65 %
02.07.2020 03:26 26,9 C 15,2 C 52 % 74 % 1011,6 hPa 0,0 l/m 3,2 km/h (1 Bft) SW 225 0,000 mm 10,6 C 15,2 C 4,8 km/h (1 Bft) 100,00 %
02.07.2020 03:25 26,8 C 15,2 C 52 % 74 % 1011,6 hPa 0,0 l/m 1,6 km/h (1 Bft) S-SW 202 0,000 mm 10,6 C 15,2 C 3,2 km/h (1 Bft) 95,65 %
02.07.2020 03:24 26,9 C 15,2 C 52 % 74 % 1011,5 hPa 0,0 l/m 4,8 km/h (1 Bft) SW 225 0,000 mm 10,6 C 15,2 C 6,4 km/h (2 Bft) 95,65 %
02.07.2020 03:23 26,9 C 15,2 C 52 % 74 % 1011,4 hPa 0,0 l/m 4,8 km/h (1 Bft) S-SW 202 0,000 mm 10,6 C 15,2 C 6,4 km/h (2 Bft) 95,65 %
02.07.2020 03:22 26,9 C 15,2 C 52 % 74 % 1011,5 hPa 0,0 l/m 4,8 km/h (1 Bft) S-SW 202 0,000 mm 10,6 C 15,2 C 6,4 km/h (2 Bft) 100,00 %
02.07.2020 03:21 26,8 C 15,3 C 52 % 74 % 1011,5 hPa 0,0 l/m 4,8 km/h (1 Bft) SW 225 0,000 mm 10,7 C 15,3 C 6,4 km/h (2 Bft) 100,00 %
02.07.2020 03:20 26,8 C 15,3 C 52 % 73 % 1011,4 hPa 0,0 l/m 1,6 km/h (1 Bft) W-SW 247 0,000 mm 10,5 C 15,3 C 4,8 km/h (1 Bft) 95,65 %
02.07.2020 03:19 26,8 C 15,3 C 52 % 73 % 1011,5 hPa 0,0 l/m 1,6 km/h (1 Bft) W-SW 247 0,000 mm 10,5 C 15,3 C 3,2 km/h (1 Bft) 100,00 %
02.07.2020 03:18 26,8 C 15,3 C 52 % 73 % 1011,5 hPa 0,0 l/m 1,6 km/h (1 Bft) W-SW 247 0,000 mm 10,5 C 15,3 C 3,2 km/h (1 Bft) 95,65 %
02.07.2020 03:17 26,8 C 15,3 C 52 % 73 % 1011,5 hPa 0,0 l/m 1,6 km/h (1 Bft) W-SW 247 0,000 mm 10,5 C 15,3 C 3,2 km/h (1 Bft) 95,65 %
02.07.2020 03:16 26,9 C 15,3 C 52 % 73 % 1011,4 hPa 0,0 l/m 3,2 km/h (1 Bft) W-SW 247 0,000 mm 10,5 C 15,3 C 3,2 km/h (1 Bft) 95,65 %
02.07.2020 03:15 26,9 C 15,3 C 52 % 72 % 1011,4 hPa 0,0 l/m 1,6 km/h (1 Bft) W-SW 247 0,000 mm 10,3 C 15,3 C 3,2 km/h (1 Bft) 100,00 %
02.07.2020 03:14 26,8 C 15,3 C 52 % 72 % 1011,4 hPa 0,0 l/m 3,2 km/h (1 Bft) W-SW 247 0,000 mm 10,3 C 15,3 C 3,2 km/h (1 Bft) 100,00 %
02.07.2020 03:13 26,8 C 15,4 C 52 % 71 % 1011,4 hPa 0,0 l/m 3,2 km/h (1 Bft) W-SW 247 0,000 mm 10,2 C 15,4 C 3,2 km/h (1 Bft) 95,65 %
02.07.2020 03:12 26,8 C 15,6 C 52 % 71 % 1011,4 hPa 0,0 l/m 3,2 km/h (1 Bft) W-SW 247 0,000 mm 10,4 C 15,6 C 3,2 km/h (1 Bft) 100,00 %
02.07.2020 03:11 26,8 C 15,8 C 52 % 71 % 1011,4 hPa 0,0 l/m 3,2 km/h (1 Bft) W-SW 247 0,000 mm 10,6 C 15,8 C 3,2 km/h (1 Bft) 91,30 %
02.07.2020 03:10 26,8 C 15,9 C 52 % 71 % 1011,4 hPa 0,0 l/m 3,2 km/h (1 Bft) W-SW 247 0,000 mm 10,6 C 15,9 C 4,8 km/h (1 Bft) 100,00 %
02.07.2020 03:09 26,9 C 16,1 C 52 % 71 % 1011,4 hPa 0,0 l/m 3,2 km/h (1 Bft) W-SW 247 0,000 mm 10,8 C 16,1 C 4,8 km/h (1 Bft) 95,65 %
02.07.2020 03:08 26,8 C 16,1 C 52 % 72 % 1011,5 hPa 0,0 l/m 3,2 km/h (1 Bft) W-SW 247 0,000 mm 11,0 C 16,1 C 4,8 km/h (1 Bft) 95,65 %
02.07.2020 03:07 26,8 C 16,1 C 52 % 72 % 1011,4 hPa 0,0 l/m 1,6 km/h (1 Bft) W 270 0,000 mm 11,0 C 16,1 C 3,2 km/h (1 Bft) 100,00 %
02.07.2020 03:06 26,8 C 16,1 C 52 % 72 % 1011,5 hPa 0,0 l/m 1,6 km/h (1 Bft) W-NW 292 0,000 mm 11,0 C 16,1 C 1,6 km/h (1 Bft) 100,00 %
02.07.2020 03:05 26,8 C 16,1 C 52 % 72 % 1011,5 hPa 0,0 l/m 1,6 km/h (1 Bft) W-NW 292 0,000 mm 11,0 C 16,1 C 3,2 km/h (1 Bft) 100,00 %
02.07.2020 03:04 26,9 C 15,9 C 52 % 72 % 1011,4 hPa 0,0 l/m 1,6 km/h (1 Bft) W-NW 292 0,000 mm 10,9 C 15,9 C 3,2 km/h (1 Bft) 100,00 %
02.07.2020 03:03 26,8 C 15,9 C 52 % 72 % 1011,4 hPa 0,0 l/m 1,6 km/h (1 Bft) SW 225 0,000 mm 10,9 C 15,9 C 4,8 km/h (1 Bft) 100,00 %
02.07.2020 03:02 26,8 C 15,9 C 52 % 72 % 1011,4 hPa 0,0 l/m 3,2 km/h (1 Bft) SW 225 0,000 mm 10,9 C 15,9 C 6,4 km/h (2 Bft) 100,00 %
02.07.2020 03:01 26,8 C 15,9 C 52 % 72 % 1011,4 hPa 0,0 l/m 3,2 km/h (1 Bft) SW 225 0,000 mm 10,9 C 15,9 C 4,8 km/h (1 Bft) 100,00 %
02.07.2020 03:00 26,8 C 15,9 C 52 % 71 % 1011,4 hPa 0,0 l/m 4,8 km/h (1 Bft) SW 225 0,000 mm 10,6 C 15,9 C 6,4 km/h (2 Bft) 100,00 %
02.07.2020 02:59 26,8 C 16,0 C 52 % 71 % 1011,4 hPa 0,0 l/m 4,8 km/h (1 Bft) SW 225 0,000 mm 10,7 C 16,0 C 4,8 km/h (1 Bft) 91,30 %
02.07.2020 02:58 26,8 C 16,1 C 52 % 71 % 1011,4 hPa 0,0 l/m 4,8 km/h (1 Bft) W-SW 247 0,000 mm 10,8 C 16,1 C 4,8 km/h (1 Bft) 100,00 %
02.07.2020 02:57 26,8 C 16,2 C 52 % 72 % 1011,4 hPa 0,0 l/m 1,6 km/h (1 Bft) W-SW 247 0,000 mm 11,1 C 16,2 C 3,2 km/h (1 Bft) 95,65 %
02.07.2020 02:56 26,8 C 16,2 C 52 % 72 % 1011,4 hPa 0,0 l/m 1,6 km/h (1 Bft) W-SW 247 0,000 mm 11,1 C 16,2 C 3,2 km/h (1 Bft) 100,00 %
02.07.2020 02:55 26,8 C 16,2 C 52 % 72 % 1011,4 hPa 0,0 l/m 1,6 km/h (1 Bft) W 270 0,000 mm 11,1 C 16,2 C 1,6 km/h (1 Bft) 100,00 %
02.07.2020 02:54 26,8 C 16,2 C 52 % 72 % 1011,4 hPa 0,0 l/m 0,0 km/h (0 Bft) W 270 0,000 mm 11,1 C 16,2 C 1,6 km/h (1 Bft) 100,00 %
02.07.2020 02:53 26,8 C 16,2 C 52 % 72 % 1011,4 hPa 0,0 l/m 0,0 km/h (0 Bft) W 270 0,000 mm 11,1 C 16,2 C 1,6 km/h (1 Bft) 100,00 %
02.07.2020 02:52 26,8 C 16,3 C 52 % 72 % 1011,4 hPa 0,0 l/m 1,6 km/h (1 Bft) W 270 0,000 mm 11,2 C 16,3 C 1,6 km/h (1 Bft) 100,00 %
02.07.2020 02:51 26,8 C 16,2 C 52 % 72 % 1011,4 hPa 0,0 l/m 1,6 km/h (1 Bft) W 270 0,000 mm 11,1 C 16,2 C 1,6 km/h (1 Bft) 100,00 %
02.07.2020 02:50 26,8 C 16,2 C 52 % 72 % 1011,4 hPa 0,0 l/m 1,6 km/h (1 Bft) W 270 0,000 mm 11,1 C 16,2 C 3,2 km/h (1 Bft) 100,00 %
02.07.2020 02:49 26,8 C 16,1 C 52 % 72 % 1011,3 hPa 0,0 l/m 1,6 km/h (1 Bft) W 270 0,000 mm 11,0 C 16,1 C 3,2 km/h (1 Bft) 100,00 %
02.07.2020 02:48 26,8 C 16,1 C 52 % 72 % 1011,3 hPa 0,0 l/m 0,0 km/h (0 Bft) W 270 0,000 mm 11,0 C 16,1 C 1,6 km/h (1 Bft) 100,00 %
02.07.2020 02:47 26,8 C 16,1 C 52 % 72 % 1011,2 hPa 0,0 l/m 0,0 km/h (0 Bft) W 270 0,000 mm 11,0 C 16,1 C 1,6 km/h (1 Bft) 100,00 %
02.07.2020 02:46 26,8 C 16,1 C 52 % 72 % 1011,2 hPa 0,0 l/m 0,0 km/h (0 Bft) W 270 0,000 mm 11,0 C 16,1 C 1,6 km/h (1 Bft) 100,00 %
02.07.2020 02:45 26,8 C 16,1 C 52 % 72 % 1011,2 hPa 0,0 l/m 0,0 km/h (0 Bft) W 270 0,000 mm 11,0 C 16,1 C 1,6 km/h (1 Bft) 95,65 %
02.07.2020 02:44 26,8 C 16,1 C 52 % 72 % 1011,2 hPa 0,0 l/m 1,6 km/h (1 Bft) W 270 0,000 mm 11,0 C 16,1 C 1,6 km/h (1 Bft) 100,00 %
02.07.2020 02:43 26,8 C 16,2 C 52 % 72 % 1011,1 hPa 0,0 l/m 0,0 km/h (0 Bft) W 270 0,000 mm 11,1 C 16,2 C 1,6 km/h (1 Bft) 100,00 %
02.07.2020 02:42 26,8 C 16,1 C 52 % 72 % 1011,2 hPa 0,0 l/m 1,6 km/h (1 Bft) W 270 0,000 mm 11,0 C 16,1 C 1,6 km/h (1 Bft) 95,65 %
02.07.2020 02:41 26,8 C 16,1 C 52 % 72 % 1011,2 hPa 0,0 l/m 1,6 km/h (1 Bft) W 270 0,000 mm 11,0 C 16,1 C 3,2 km/h (1 Bft) 100,00 %
02.07.2020 02:40 26,8 C 16,1 C 52 % 72 % 1011,2 hPa 0,0 l/m 1,6 km/h (1 Bft) W 270 0,000 mm 11,0 C 16,1 C 4,8 km/h (1 Bft) 100,00 %
02.07.2020 02:39 26,8 C 16,2 C 52 % 72 % 1011,1 hPa 0,0 l/m 0,0 km/h (0 Bft) N 0 0,000 mm 11,1 C 16,2 C 0,0 km/h (0 Bft) 100,00 %
02.07.2020 02:38 26,8 C 16,2 C 52 % 73 % 1011,1 hPa 0,0 l/m 1,6 km/h (1 Bft) W 270 0,000 mm 11,4 C 16,2 C 4,8 km/h (1 Bft) 100,00 %
02.07.2020 02:37 26,8 C 16,2 C 52 % 74 % 1011,0 hPa 0,0 l/m 1,6 km/h (1 Bft) W-SW 247 0,000 mm 11,6 C 16,2 C 3,2 km/h (1 Bft) 95,65 %
02.07.2020 02:36 26,8 C 16,2 C 52 % 74 % 1011,0 hPa 0,0 l/m 1,6 km/h (1 Bft) W 270 0,000 mm 11,6 C 16,2 C 4,8 km/h (1 Bft) 100,00 %
02.07.2020 02:35 26,8 C 16,1 C 52 % 74 % 1010,9 hPa 0,0 l/m 1,6 km/h (1 Bft) W 270 0,000 mm 11,5 C 16,1 C 1,6 km/h (1 Bft) 95,65 %
02.07.2020 02:34 26,8 C 16,1 C 52 % 74 % 1011,0 hPa 0,0 l/m 1,6 km/h (1 Bft) W 270 0,000 mm 11,5 C 16,1 C 3,2 km/h (1 Bft) 100,00 %
02.07.2020 02:33 26,8 C 16,1 C 52 % 74 % 1010,9 hPa 0,0 l/m 1,6 km/h (1 Bft) W-SW 247 0,000 mm 11,5 C 16,1 C 3,2 km/h (1 Bft) 100,00 %
02.07.2020 02:32 26,8 C 16,1 C 52 % 74 % 1011,0 hPa 0,0 l/m 3,2 km/h (1 Bft) W 270 0,000 mm 11,5 C 16,1 C 4,8 km/h (1 Bft) 100,00 %
02.07.2020 02:31 26,8 C 16,0 C 52 % 75 % 1011,0 hPa 0,0 l/m 3,2 km/h (1 Bft) W 270 0,000 mm 11,6 C 16,0 C 4,8 km/h (1 Bft) 100,00 %
02.07.2020 02:30 26,8 C 15,9 C 52 % 75 % 1011,0 hPa 0,0 l/m 3,2 km/h (1 Bft) W 270 0,000 mm 11,5 C 15,9 C 4,8 km/h (1 Bft) 95,65 %
02.07.2020 02:29 26,8 C 15,8 C 52 % 75 % 1010,9 hPa 0,0 l/m 3,2 km/h (1 Bft) W-NW 292 0,000 mm 11,4 C 15,8 C 4,8 km/h (1 Bft) 100,00 %
02.07.2020 02:28 26,8 C 15,9 C 52 % 75 % 1010,9 hPa 0,0 l/m 1,6 km/h (1 Bft) W-NW 292 0,000 mm 11,5 C 15,9 C 3,2 km/h (1 Bft) 95,65 %
02.07.2020 02:27 26,8 C 15,8 C 52 % 75 % 1010,9 hPa 0,0 l/m 0,0 km/h (0 Bft) W-NW 292 0,000 mm 11,4 C 15,8 C 1,6 km/h (1 Bft) 100,00 %
02.07.2020 02:26 26,8 C 15,8 C 52 % 75 % 1010,9 hPa 0,0 l/m 1,6 km/h (1 Bft) W-NW 292 0,000 mm 11,4 C 15,8 C 4,8 km/h (1 Bft) 100,00 %
02.07.2020 02:25 26,8 C 15,8 C 52 % 75 % 1010,7 hPa 0,0 l/m 1,6 km/h (1 Bft) S-SW 202 0,000 mm 11,4 C 15,8 C 3,2 km/h (1 Bft) 100,00 %
02.07.2020 02:24 26,8 C 15,8 C 52 % 75 % 1010,6 hPa 0,0 l/m 1,6 km/h (1 Bft) SW 225 0,000 mm 11,4 C 15,8 C 3,2 km/h (1 Bft) 100,00 %
02.07.2020 02:23 26,8 C 15,8 C 52 % 75 % 1010,7 hPa 0,0 l/m 1,6 km/h (1 Bft) W 270 0,000 mm 11,4 C 15,8 C 3,2 km/h (1 Bft) 100,00 %
02.07.2020 02:22 26,8 C 15,7 C 52 % 75 % 1010,7 hPa 0,0 l/m 3,2 km/h (1 Bft) SW 225 0,000 mm 11,3 C 15,7 C 6,4 km/h (2 Bft) 100,00 %
02.07.2020 02:21 26,8 C 15,7 C 52 % 75 % 1010,6 hPa 0,0 l/m 4,8 km/h (1 Bft) SW 225 0,000 mm 11,3 C 15,7 C 6,4 km/h (2 Bft) 100,00 %
02.07.2020 02:20 26,8 C 15,7 C 52 % 75 % 1010,6 hPa 0,0 l/m 3,2 km/h (1 Bft) S-SW 202 0,000 mm 11,3 C 15,7 C 4,8 km/h (1 Bft) 100,00 %
02.07.2020 02:19 26,8 C 15,7 C 52 % 75 % 1010,6 hPa 0,0 l/m 4,8 km/h (1 Bft) S-SW 202 0,000 mm 11,3 C 15,7 C 6,4 km/h (2 Bft) 100,00 %
02.07.2020 02:18 26,8 C 15,8 C 52 % 75 % 1010,6 hPa 0,0 l/m 3,2 km/h (1 Bft) SW 225 0,000 mm 11,4 C 15,8 C 4,8 km/h (1 Bft) 100,00 %
02.07.2020 02:17 26,8 C 15,8 C 52 % 75 % 1010,6 hPa 0,0 l/m 3,2 km/h (1 Bft) SW 225 0,000 mm 11,4 C 15,8 C 8,0 km/h (2 Bft) 100,00 %
02.07.2020 02:16 26,8 C 15,8 C 52 % 74 % 1010,5 hPa 0,0 l/m 6,4 km/h (2 Bft) SW 225 0,000 mm 11,2 C 15,8 C 8,0 km/h (2 Bft) 100,00 %
02.07.2020 02:15 26,8 C 15,8 C 53 % 75 % 1010,5 hPa 0,0 l/m 8,0 km/h (2 Bft) S-SW 202 0,000 mm 11,4 C 14,9 C 9,7 km/h (2 Bft) 95,65 %
02.07.2020 02:14 26,8 C 15,9 C 52 % 75 % 1010,5 hPa 0,0 l/m 8,0 km/h (2 Bft) S-SW 202 0,000 mm 11,5 C 15,0 C 9,7 km/h (2 Bft) 100,00 %
02.07.2020 02:13 26,8 C 15,9 C 53 % 75 % 1010,6 hPa 0,0 l/m 8,0 km/h (2 Bft) S-SW 202 0,000 mm 11,5 C 15,0 C 9,7 km/h (2 Bft) 100,00 %
02.07.2020 02:12 26,8 C 15,9 C 53 % 75 % 1010,6 hPa 0,0 l/m 6,4 km/h (2 Bft) S-SW 202 0,000 mm 11,5 C 15,9 C 9,7 km/h (2 Bft) 100,00 %
02.07.2020 02:11 26,8 C 15,9 C 53 % 75 % 1010,6 hPa 0,0 l/m 4,8 km/h (1 Bft) SW 225 0,000 mm 11,5 C 15,9 C 8,0 km/h (2 Bft) 100,00 %
02.07.2020 02:10 26,8 C 15,8 C 53 % 75 % 1010,6 hPa 0,0 l/m 4,8 km/h (1 Bft) SW 225 0,000 mm 11,4 C 15,8 C 6,4 km/h (2 Bft) 95,65 %
02.07.2020 02:09 26,8 C 15,8 C 53 % 75 % 1010,6 hPa 0,0 l/m 3,2 km/h (1 Bft) S-SW 202 0,000 mm 11,4 C 15,8 C 3,2 km/h (1 Bft) 100,00 %
02.07.2020 02:08 26,7 C 15,8 C 53 % 75 % 1010,6 hPa 0,0 l/m 3,2 km/h (1 Bft) SW 225 0,000 mm 11,4 C 15,8 C 6,4 km/h (2 Bft) 95,65 %
02.07.2020 02:07 26,8 C 15,7 C 53 % 75 % 1010,5 hPa 0,0 l/m 3,2 km/h (1 Bft) SW 225 0,000 mm 11,3 C 15,7 C 6,4 km/h (2 Bft) 100,00 %
02.07.2020 02:06 26,8 C 15,7 C 53 % 75 % 1010,5 hPa 0,0 l/m 3,2 km/h (1 Bft) SW 225 0,000 mm 11,3 C 15,7 C 6,4 km/h (2 Bft) 100,00 %
02.07.2020 02:05 26,8 C 15,7 C 53 % 75 % 1010,4 hPa 0,0 l/m 6,4 km/h (2 Bft) SW 225 0,000 mm 11,3 C 15,7 C 8,0 km/h (2 Bft) 100,00 %
02.07.2020 02:04 26,7 C 15,7 C 53 % 75 % 1010,3 hPa 0,0 l/m 6,4 km/h (2 Bft) SW 225 0,000 mm 11,3 C 15,7 C 8,0 km/h (2 Bft) 100,00 %
02.07.2020 02:03 26,7 C 15,7 C 53 % 75 % 1010,3 hPa 0,0 l/m 6,4 km/h (2 Bft) S-SW 202 0,000 mm 11,3 C 15,7 C 9,7 km/h (2 Bft) 100,00 %
02.07.2020 02:02 26,7 C 15,7 C 53 % 75 % 1010,4 hPa 0,0 l/m 8,0 km/h (2 Bft) SW 225 0,000 mm 11,3 C 14,8 C 8,0 km/h (2 Bft) 100,00 %
02.07.2020 02:01 26,7 C 15,7 C 53 % 75 % 1010,3 hPa 0,0 l/m 6,4 km/h (2 Bft) SW 225 0,000 mm 11,3 C 15,7 C 9,7 km/h (2 Bft) 100,00 %
02.07.2020 02:00 26,7 C 15,7 C 53 % 75 % 1010,3 hPa 0,0 l/m 6,4 km/h (2 Bft) S-SW 202 0,000 mm 11,3 C 15,7 C 8,0 km/h (2 Bft) 100,00 %
02.07.2020 01:59 26,7 C 15,7 C 53 % 75 % 1010,4 hPa 0,0 l/m 6,4 km/h (2 Bft) SW 225 0,000 mm 11,3 C 15,7 C 9,7 km/h (2 Bft) 100,00 %
02.07.2020 01:58 26,7 C 15,7 C 53 % 75 % 1010,4 hPa 0,0 l/m 8,0 km/h (2 Bft) SW 225 0,000 mm 11,3 C 14,8 C 9,7 km/h (2 Bft) 100,00 %
02.07.2020 01:57 26,7 C 15,7 C 53 % 75 % 1010,3 hPa 0,0 l/m 8,0 km/h (2 Bft) SW 225 0,000 mm 11,3 C 14,8 C 9,7 km/h (2 Bft) 100,00 %
02.07.2020 01:56 26,7 C 15,7 C 53 % 74 % 1010,4 hPa 0,0 l/m 6,4 km/h (2 Bft) SW 225 0,000 mm 11,1 C 15,7 C 9,7 km/h (2 Bft) 100,00 %
02.07.2020 01:55 26,7 C 15,6 C 53 % 74 % 1010,4 hPa 0,0 l/m 8,0 km/h (2 Bft) SW 225 0,000 mm 11,0 C 14,7 C 9,7 km/h (2 Bft) 100,00 %
02.07.2020 01:54 26,7 C 15,6 C 53 % 74 % 1010,4 hPa 0,0 l/m 8,0 km/h (2 Bft) SW 225 0,000 mm 11,0 C 14,7 C 11,3 km/h (2 Bft) 100,00 %
02.07.2020 01:53 26,7 C 15,6 C 53 % 74 % 1010,4 hPa 0,0 l/m 8,0 km/h (2 Bft) SW 225 0,000 mm 11,0 C 14,7 C 11,3 km/h (2 Bft) 100,00 %
02.07.2020 01:52 26,7 C 15,6 C 53 % 73 % 1010,4 hPa 0,0 l/m 6,4 km/h (2 Bft) SW 225 0,000 mm 10,8 C 15,6 C 9,7 km/h (2 Bft) 100,00 %
02.07.2020 01:51 26,6 C 15,7 C 53 % 73 % 1010,4 hPa 0,0 l/m 6,4 km/h (2 Bft) SW 225 0,000 mm 10,9 C 15,7 C 8,0 km/h (2 Bft) 100,00 %
02.07.2020 01:50 26,6 C 15,7 C 53 % 73 % 1010,3 hPa 0,0 l/m 6,4 km/h (2 Bft) SW 225 0,000 mm 10,9 C 15,7 C 6,4 km/h (2 Bft) 100,00 %
02.07.2020 01:49 26,6 C 15,8 C 53 % 73 % 1010,3 hPa 0,0 l/m 6,4 km/h (2 Bft) S-SW 202 0,000 mm 11,0 C 15,8 C 8,0 km/h (2 Bft) 100,00 %
02.07.2020 01:48 26,6 C 15,9 C 53 % 73 % 1010,3 hPa 0,0 l/m 4,8 km/h (1 Bft) SW 225 0,000 mm 11,1 C 15,9 C 8,0 km/h (2 Bft) 100,00 %
02.07.2020 01:47 26,6 C 16,0 C 53 % 73 % 1010,4 hPa 0,0 l/m 4,8 km/h (1 Bft) SW 225 0,000 mm 11,2 C 16,0 C 6,4 km/h (2 Bft) 95,65 %
02.07.2020 01:46 26,6 C 16,1 C 53 % 73 % 1010,4 hPa 0,0 l/m 0,0 km/h (0 Bft) W-SW 247 0,000 mm 11,3 C 16,1 C 3,2 km/h (1 Bft) 100,00 %
02.07.2020 01:45 26,6 C 16,1 C 53 % 73 % 1010,4 hPa 0,0 l/m 0,0 km/h (0 Bft) N 0 0,000 mm 11,3 C 16,1 C 0,0 km/h (0 Bft) 100,00 %
02.07.2020 01:44 26,6 C 16,2 C 53 % 73 % 1010,4 hPa 0,0 l/m 1,6 km/h (1 Bft) W-SW 247 0,000 mm 11,4 C 16,2 C 3,2 km/h (1 Bft) 100,00 %
02.07.2020 01:43 26,6 C 16,3 C 53 % 73 % 1010,4 hPa 0,0 l/m 1,6 km/h (1 Bft) W-SW 247 0,000 mm 11,4 C 16,3 C 3,2 km/h (1 Bft) 100,00 %
02.07.2020 01:42 26,6 C 16,3 C 53 % 73 % 1010,5 hPa 0,0 l/m 1,6 km/h (1 Bft) W-SW 247 0,000 mm 11,4 C 16,3 C 3,2 km/h (1 Bft) 100,00 %
02.07.2020 01:41 26,6 C 16,3 C 53 % 73 % 1010,6 hPa 0,0 l/m 3,2 km/h (1 Bft) W 270 0,000 mm 11,4 C 16,3 C 4,8 km/h (1 Bft) 100,00 %
02.07.2020 01:40 26,6 C 16,3 C 53 % 73 % 1010,6 hPa 0,0 l/m 6,4 km/h (2 Bft) W 270 0,000 mm 11,4 C 16,3 C 9,7 km/h (2 Bft) 100,00 %
02.07.2020 01:39 26,6 C 16,3 C 53 % 73 % 1010,5 hPa 0,0 l/m 4,8 km/h (1 Bft) W 270 0,000 mm 11,4 C 16,3 C 6,4 km/h (2 Bft) 100,00 %
02.07.2020 01:38 26,6 C 16,3 C 53 % 73 % 1010,5 hPa 0,0 l/m 3,2 km/h (1 Bft) W-NW 292 0,000 mm 11,4 C 16,3 C 4,8 km/h (1 Bft) 100,00 %
02.07.2020 01:37 26,6 C 16,3 C 53 % 73 % 1010,4 hPa 0,0 l/m 1,6 km/h (1 Bft) W 270 0,000 mm 11,4 C 16,3 C 3,2 km/h (1 Bft) 100,00 %
02.07.2020 01:36 26,6 C 16,3 C 53 % 73 % 1010,4 hPa 0,0 l/m 1,6 km/h (1 Bft) SW 225 0,000 mm 11,4 C 16,3 C 3,2 km/h (1 Bft) 100,00 %
02.07.2020 01:35 26,6 C 16,4 C 53 % 73 % 1010,4 hPa 0,0 l/m 0,0 km/h (0 Bft) SW 225 0,000 mm 11,5 C 16,4 C 1,6 km/h (1 Bft) 100,00 %
02.07.2020 01:34 26,5 C 16,4 C 53 % 72 % 1010,4 hPa 0,0 l/m 1,6 km/h (1 Bft) SW 225 0,000 mm 11,3 C 16,4 C 3,2 km/h (1 Bft) 100,00 %
02.07.2020 01:33 26,5 C 16,4 C 53 % 72 % 1010,5 hPa 0,0 l/m 1,6 km/h (1 Bft) SW 225 0,000 mm 11,3 C 16,4 C 3,2 km/h (1 Bft) 100,00 %
02.07.2020 01:32 26,5 C 16,5 C 53 % 72 % 1010,5 hPa 0,0 l/m 1,6 km/h (1 Bft) W-SW 247 0,000 mm 11,4 C 16,5 C 3,2 km/h (1 Bft) 100,00 %
02.07.2020 01:31 26,5 C 16,6 C 53 % 72 % 1010,5 hPa 0,0 l/m 1,6 km/h (1 Bft) W 270 0,000 mm 11,5 C 16,6 C 3,2 km/h (1 Bft) 100,00 %
02.07.2020 01:30 26,5 C 16,7 C 53 % 72 % 1010,5 hPa 0,0 l/m 1,6 km/h (1 Bft) W 270 0,000 mm 11,6 C 16,7 C 3,2 km/h (1 Bft) 100,00 %
02.07.2020 01:29 26,5 C 16,7 C 53 % 72 % 1010,6 hPa 0,0 l/m 1,6 km/h (1 Bft) W 270 0,000 mm 11,6 C 16,7 C 3,2 km/h (1 Bft) 100,00 %
02.07.2020 01:28 26,5 C 16,7 C 53 % 72 % 1010,6 hPa 0,0 l/m 1,6 km/h (1 Bft) W 270 0,000 mm 11,6 C 16,7 C 3,2 km/h (1 Bft) 100,00 %
02.07.2020 01:27 26,5 C 16,7 C 53 % 72 % 1010,6 hPa 0,0 l/m 4,8 km/h (1 Bft) W 270 0,000 mm 11,6 C 16,7 C 11,3 km/h (2 Bft) 95,65 %
02.07.2020 01:26 26,5 C 16,7 C 53 % 73 % 1010,5 hPa 0,0 l/m 6,4 km/h (2 Bft) W-NW 292 0,000 mm 11,8 C 16,7 C 11,3 km/h (2 Bft) 100,00 %
02.07.2020 01:25 26,5 C 16,7 C 53 % 73 % 1010,6 hPa 0,0 l/m 3,2 km/h (1 Bft) W-SW 247 0,000 mm 11,8 C 16,7 C 6,4 km/h (2 Bft) 100,00 %
02.07.2020 01:24 26,5 C 16,7 C 53 % 73 % 1010,5 hPa 0,0 l/m 3,2 km/h (1 Bft) W-SW 247 0,000 mm 11,8 C 16,7 C 9,7 km/h (2 Bft) 100,00 %
02.07.2020 01:23 26,5 C 16,7 C 53 % 73 % 1010,5 hPa 0,0 l/m 3,2 km/h (1 Bft) W-SW 247 0,000 mm 11,8 C 16,7 C 6,4 km/h (2 Bft) 100,00 %
02.07.2020 01:22 26,5 C 16,6 C 53 % 73 % 1010,4 hPa 0,0 l/m 4,8 km/h (1 Bft) SW 225 0,000 mm 11,7 C 16,6 C 6,4 km/h (2 Bft) 95,65 %
02.07.2020 01:21 26,5 C 16,6 C 53 % 73 % 1010,4 hPa 0,0 l/m 4,8 km/h (1 Bft) W-SW 247 0,000 mm 11,7 C 16,6 C 6,4 km/h (2 Bft) 100,00 %
02.07.2020 01:20 26,5 C 16,6 C 53 % 73 % 1010,4 hPa 0,0 l/m 3,2 km/h (1 Bft) SW 225 0,000 mm 11,7 C 16,6 C 4,8 km/h (1 Bft) 100,00 %
02.07.2020 01:19 26,5 C 16,6 C 53 % 73 % 1010,4 hPa 0,0 l/m 3,2 km/h (1 Bft) SW 225 0,000 mm 11,7 C 16,6 C 6,4 km/h (2 Bft) 100,00 %
02.07.2020 01:18 26,6 C 16,6 C 53 % 73 % 1010,4 hPa 0,0 l/m 3,2 km/h (1 Bft) W 270 0,000 mm 11,7 C 16,6 C 6,4 km/h (2 Bft) 95,65 %
02.07.2020 01:17 26,5 C 16,6 C 53 % 73 % 1010,4 hPa 0,0 l/m 4,8 km/h (1 Bft) W 270 0,000 mm 11,7 C 16,6 C 11,3 km/h (2 Bft) 100,00 %
02.07.2020 01:16 26,6 C 16,6 C 53 % 73 % 1010,4 hPa 0,0 l/m 4,8 km/h (1 Bft) W 270 0,000 mm 11,7 C 16,6 C 8,0 km/h (2 Bft) 100,00 %
02.07.2020 01:15 26,6 C 16,6 C 53 % 73 % 1010,4 hPa 0,0 l/m 8,0 km/h (2 Bft) W 270 0,000 mm 11,7 C 15,8 C 12,9 km/h (3 Bft) 95,65 %
02.07.2020 01:14 26,6 C 16,6 C 53 % 73 % 1010,3 hPa 0,0 l/m 6,4 km/h (2 Bft) W 270 0,000 mm 11,7 C 16,6 C 9,7 km/h (2 Bft) 100,00 %
02.07.2020 01:13 26,6 C 16,6 C 53 % 73 % 1010,3 hPa 0,0 l/m 4,8 km/h (1 Bft) W-NW 292 0,000 mm 11,7 C 16,6 C 9,7 km/h (2 Bft) 100,00 %
02.07.2020 01:12 26,6 C 16,6 C 53 % 74 % 1010,2 hPa 0,0 l/m 8,0 km/h (2 Bft) W 270 0,000 mm 11,9 C 15,8 C 12,9 km/h (3 Bft) 100,00 %
02.07.2020 01:11 26,6 C 16,6 C 53 % 74 % 1010,3 hPa 0,0 l/m 9,7 km/h (2 Bft) W 270 0,000 mm 11,9 C 15,0 C 14,5 km/h (3 Bft) 100,00 %
02.07.2020 01:10 26,6 C 16,6 C 53 % 74 % 1010,3 hPa 0,0 l/m 6,4 km/h (2 Bft) W-NW 292 0,000 mm 11,9 C 16,6 C 9,7 km/h (2 Bft) 95,65 %
02.07.2020 01:09 26,6 C 16,5 C 53 % 74 % 1010,3 hPa 0,0 l/m 6,4 km/h (2 Bft) W 270 0,000 mm 11,8 C 16,5 C 11,3 km/h (2 Bft) 100,00 %
02.07.2020 01:08 26,6 C 16,5 C 53 % 74 % 1010,3 hPa 0,0 l/m 4,8 km/h (1 Bft) SW 225 0,000 mm 11,8 C 16,5 C 11,3 km/h (2 Bft) 100,00 %
02.07.2020 01:07 26,6 C 16,4 C 53 % 74 % 1010,4 hPa 0,0 l/m 8,0 km/h (2 Bft) W 270 0,000 mm 11,8 C 15,6 C 12,9 km/h (3 Bft) 100,00 %
02.07.2020 01:06 26,6 C 16,4 C 53 % 74 % 1010,4 hPa 0,0 l/m 8,0 km/h (2 Bft) W 270 0,000 mm 11,8 C 15,6 C 14,5 km/h (3 Bft) 100,00 %
02.07.2020 01:05 26,6 C 16,4 C 53 % 74 % 1010,4 hPa 0,0 l/m 4,8 km/h (1 Bft) W-SW 247 0,000 mm 11,8 C 16,4 C 8,0 km/h (2 Bft) 95,65 %
02.07.2020 01:04 26,6 C 16,4 C 53 % 74 % 1010,3 hPa 0,0 l/m 4,8 km/h (1 Bft) W 270 0,000 mm 11,8 C 16,4 C 9,7 km/h (2 Bft) 100,00 %
02.07.2020 01:03 26,6 C 16,3 C 53 % 73 % 1010,1 hPa 0,0 l/m 4,8 km/h (1 Bft) W-NW 292 0,000 mm 11,4 C 16,3 C 9,7 km/h (2 Bft) 100,00 %
02.07.2020 01:02 26,6 C 16,4 C 53 % 73 % 1010,2 hPa 0,0 l/m 3,2 km/h (1 Bft) W-NW 292 0,000 mm 11,5 C 16,4 C 4,8 km/h (1 Bft) 100,00 %
02.07.2020 01:01 26,6 C 16,4 C 53 % 73 % 1010,1 hPa 0,0 l/m 1,6 km/h (1 Bft) W-NW 292 0,000 mm 11,5 C 16,4 C 3,2 km/h (1 Bft) 100,00 %
02.07.2020 01:00 26,6 C 16,4 C 53 % 73 % 1010,1 hPa 0,0 l/m 1,6 km/h (1 Bft) W-NW 292 0,000 mm 11,5 C 16,4 C 4,8 km/h (1 Bft) 100,00 %
02.07.2020 00:59 26,6 C 16,4 C 53 % 73 % 1010,2 hPa 0,0 l/m 4,8 km/h (1 Bft) W-NW 292 0,000 mm 11,5 C 16,4 C 9,7 km/h (2 Bft) 100,00 %
02.07.2020 00:58 26,6 C 16,4 C 53 % 74 % 1010,2 hPa 0,0 l/m 3,2 km/h (1 Bft) W 270 0,000 mm 11,8 C 16,4 C 4,8 km/h (1 Bft) 100,00 %
02.07.2020 00:57 26,6 C 16,4 C 53 % 74 % 1010,1 hPa 0,0 l/m 3,2 km/h (1 Bft) W-SW 247 0,000 mm 11,8 C 16,4 C 4,8 km/h (1 Bft) 100,00 %
02.07.2020 00:56 26,6 C 16,4 C 53 % 73 % 1010,1 hPa 0,0 l/m 8,0 km/h (2 Bft) W 270 0,000 mm 11,5 C 15,6 C 12,9 km/h (3 Bft) 100,00 %
02.07.2020 00:55 26,6 C 16,3 C 53 % 73 % 1010,2 hPa 0,0 l/m 8,0 km/h (2 Bft) W 270 0,000 mm 11,4 C 15,5 C 11,3 km/h (2 Bft) 100,00 %
02.07.2020 00:54 26,6 C 16,3 C 53 % 73 % 1010,2 hPa 0,0 l/m 4,8 km/h (1 Bft) W 270 0,000 mm 11,4 C 16,3 C 6,4 km/h (2 Bft) 100,00 %
02.07.2020 00:53 26,6 C 16,3 C 53 % 72 % 1010,2 hPa 0,0 l/m 1,6 km/h (1 Bft) SW 225 0,000 mm 11,2 C 16,3 C 3,2 km/h (1 Bft) 100,00 %
02.07.2020 00:52 26,6 C 16,3 C 53 % 72 % 1010,2 hPa 0,0 l/m 3,2 km/h (1 Bft) SW 225 0,000 mm 11,2 C 16,3 C 4,8 km/h (1 Bft) 100,00 %
02.07.2020 00:51 26,6 C 16,4 C 53 % 71 % 1010,2 hPa 0,0 l/m 3,2 km/h (1 Bft) SW 225 0,000 mm 11,1 C 16,4 C 4,8 km/h (1 Bft) 95,65 %
02.07.2020 00:50 26,5 C 16,4 C 53 % 71 % 1010,2 hPa 0,0 l/m 1,6 km/h (1 Bft) W 270 0,000 mm 11,1 C 16,4 C 4,8 km/h (1 Bft) 100,00 %
02.07.2020 00:49 26,6 C 16,4 C 53 % 71 % 1010,1 hPa 0,0 l/m 1,6 km/h (1 Bft) W-NW 292 0,000 mm 11,1 C 16,4 C 3,2 km/h (1 Bft) 100,00 %
02.07.2020 00:48 26,6 C 16,4 C 53 % 71 % 1010,2 hPa 0,0 l/m 1,6 km/h (1 Bft) W-NW 292 0,000 mm 11,1 C 16,4 C 3,2 km/h (1 Bft) 100,00 %
02.07.2020 00:47 26,6 C 16,4 C 53 % 71 % 1010,2 hPa 0,0 l/m 1,6 km/h (1 Bft) SW 225 0,000 mm 11,1 C 16,4 C 3,2 km/h (1 Bft) 100,00 %
02.07.2020 00:46 26,6 C 16,5 C 53 % 71 % 1010,2 hPa 0,0 l/m 1,6 km/h (1 Bft) W-NW 292 0,000 mm 11,2 C 16,5 C 3,2 km/h (1 Bft) 95,65 %
02.07.2020 00:45 26,6 C 16,4 C 53 % 71 % 1010,2 hPa 0,0 l/m 3,2 km/h (1 Bft) W-NW 292 0,000 mm 11,1 C 16,4 C 6,4 km/h (2 Bft) 100,00 %
02.07.2020 00:44 26,6 C 16,5 C 53 % 70 % 1010,3 hPa 0,0 l/m 4,8 km/h (1 Bft) W 270 0,000 mm 11,0 C 16,5 C 6,4 km/h (2 Bft) 100,00 %
02.07.2020 00:43 26,6 C 16,4 C 53 % 70 % 1010,3 hPa 0,0 l/m 3,2 km/h (1 Bft) W 270 0,000 mm 10,9 C 16,4 C 4,8 km/h (1 Bft) 100,00 %
02.07.2020 00:42 26,6 C 16,5 C 53 % 70 % 1010,3 hPa 0,0 l/m 1,6 km/h (1 Bft) SW 225 0,000 mm 11,0 C 16,5 C 3,2 km/h (1 Bft) 100,00 %
02.07.2020 00:41 26,6 C 16,6 C 53 % 70 % 1010,2 hPa 0,0 l/m 1,6 km/h (1 Bft) SW 225 0,000 mm 11,1 C 16,6 C 3,2 km/h (1 Bft) 100,00 %
02.07.2020 00:40 26,6 C 16,7 C 53 % 70 % 1010,1 hPa 0,0 l/m 1,6 km/h (1 Bft) SW 225 0,000 mm 11,2 C 16,7 C 3,2 km/h (1 Bft) 100,00 %
02.07.2020 00:39 26,6 C 16,8 C 53 % 69 % 1010,2 hPa 0,0 l/m 1,6 km/h (1 Bft) SW 225 0,000 mm 11,1 C 16,8 C 4,8 km/h (1 Bft) 100,00 %
02.07.2020 00:38 26,6 C 16,8 C 53 % 69 % 1010,3 hPa 0,0 l/m 1,6 km/h (1 Bft) SW 225 0,000 mm 11,1 C 16,8 C 3,2 km/h (1 Bft) 100,00 %
02.07.2020 00:37 26,6 C 16,9 C 53 % 69 % 1010,3 hPa 0,0 l/m 3,2 km/h (1 Bft) SW 225 0,000 mm 11,2 C 16,9 C 4,8 km/h (1 Bft) 100,00 %
02.07.2020 00:36 26,6 C 16,9 C 53 % 69 % 1010,2 hPa 0,0 l/m 4,8 km/h (1 Bft) W 270 0,000 mm 11,2 C 16,9 C 9,7 km/h (2 Bft) 100,00 %
02.07.2020 00:35 26,6 C 17,0 C 53 % 69 % 1010,2 hPa 0,0 l/m 8,0 km/h (2 Bft) W-NW 292 0,000 mm 11,3 C 16,2 C 11,3 km/h (2 Bft) 100,00 %
02.07.2020 00:34 26,6 C 17,1 C 53 % 68 % 1010,4 hPa 0,0 l/m 8,0 km/h (2 Bft) W-SW 247 0,000 mm 11,1 C 16,3 C 12,9 km/h (3 Bft) 100,00 %
02.07.2020 00:33 26,6 C 17,2 C 53 % 68 % 1010,4 hPa 0,0 l/m 8,0 km/h (2 Bft) W 270 0,000 mm 11,2 C 16,4 C 12,9 km/h (3 Bft) 100,00 %
02.07.2020 00:32 26,6 C 17,2 C 53 % 68 % 1010,4 hPa 0,0 l/m 9,7 km/h (2 Bft) W 270 0,000 mm 11,2 C 15,7 C 14,5 km/h (3 Bft) 100,00 %
02.07.2020 00:31 26,7 C 17,3 C 53 % 68 % 1010,4 hPa 0,0 l/m 11,3 km/h (2 Bft) W-SW 247 0,000 mm 11,3 C 15,2 C 19,3 km/h (3 Bft) 100,00 %
02.07.2020 00:30 26,7 C 17,3 C 53 % 68 % 1010,5 hPa 0,0 l/m 9,7 km/h (2 Bft) W 270 0,000 mm 11,3 C 15,8 C 14,5 km/h (3 Bft) 100,00 %
02.07.2020 00:29 26,7 C 17,4 C 53 % 68 % 1010,4 hPa 0,0 l/m 11,3 km/h (2 Bft) W-SW 247 0,000 mm 11,4 C 15,3 C 17,7 km/h (3 Bft) 100,00 %
02.07.2020 00:28 26,7 C 17,4 C 53 % 68 % 1010,4 hPa 0,0 l/m 11,3 km/h (2 Bft) W 270 0,000 mm 11,4 C 15,3 C 16,1 km/h (3 Bft) 100,00 %
02.07.2020 00:27 26,7 C 17,4 C 53 % 68 % 1010,4 hPa 0,0 l/m 6,4 km/h (2 Bft) SW 225 0,000 mm 11,4 C 17,4 C 12,9 km/h (3 Bft) 95,65 %
02.07.2020 00:26 26,7 C 17,3 C 53 % 68 % 1010,2 hPa 0,0 l/m 9,7 km/h (2 Bft) S-SW 202 0,000 mm 11,3 C 15,8 C 19,3 km/h (3 Bft) 100,00 %
02.07.2020 00:25 26,7 C 17,3 C 53 % 69 % 1010,3 hPa 0,0 l/m 16,1 km/h (3 Bft) SW 225 0,000 mm 11,6 C 13,7 C 20,9 km/h (4 Bft) 100,00 %
02.07.2020 00:24 26,7 C 17,3 C 53 % 69 % 1010,2 hPa 0,0 l/m 17,7 km/h (3 Bft) SW 225 0,000 mm 11,6 C 13,3 C 22,5 km/h (4 Bft) 100,00 %
02.07.2020 00:23 26,7 C 17,2 C 53 % 69 % 1010,3 hPa 0,0 l/m 14,5 km/h (3 Bft) SW 225 0,000 mm 11,5 C 14,0 C 24,1 km/h (4 Bft) 100,00 %
02.07.2020 00:22 26,7 C 17,2 C 53 % 70 % 1010,2 hPa 0,0 l/m 16,1 km/h (3 Bft) SW 225 0,000 mm 11,7 C 13,5 C 25,7 km/h (4 Bft) 100,00 %
02.07.2020 00:21 26,7 C 17,2 C 53 % 70 % 1010,3 hPa 0,0 l/m 17,7 km/h (3 Bft) S-SW 202 0,000 mm 11,7 C 13,1 C 24,1 km/h (4 Bft) 100,00 %
02.07.2020 00:20 26,8 C 17,2 C 53 % 70 % 1010,3 hPa 0,0 l/m 14,5 km/h (3 Bft) S-SW 202 0,000 mm 11,7 C 14,0 C 20,9 km/h (4 Bft) 100,00 %
02.07.2020 00:19 26,8 C 17,2 C 53 % 70 % 1010,3 hPa 0,0 l/m 12,9 km/h (3 Bft) SW 225 0,000 mm 11,7 C 14,5 C 17,7 km/h (3 Bft) 100,00 %
02.07.2020 00:18 26,8 C 17,2 C 53 % 70 % 1010,3 hPa 0,0 l/m 16,1 km/h (3 Bft) SW 225 0,000 mm 11,7 C 13,5 C 20,9 km/h (4 Bft) 100,00 %
02.07.2020 00:17 26,8 C 17,2 C 53 % 70 % 1010,2 hPa 0,0 l/m 14,5 km/h (3 Bft) S-SW 202 0,000 mm 11,7 C 14,0 C 19,3 km/h (3 Bft) 100,00 %
02.07.2020 00:16 26,8 C 17,2 C 53 % 70 % 1010,2 hPa 0,0 l/m 14,5 km/h (3 Bft) SW 225 0,000 mm 11,7 C 14,0 C 19,3 km/h (3 Bft) 100,00 %
02.07.2020 00:15 26,8 C 17,2 C 53 % 70 % 1010,2 hPa 0,0 l/m 14,5 km/h (3 Bft) SW 225 0,000 mm 11,7 C 14,0 C 19,3 km/h (3 Bft) 95,65 %
02.07.2020 00:14 26,8 C 17,2 C 53 % 70 % 1010,2 hPa 0,0 l/m 12,9 km/h (3 Bft) S-SW 202 0,000 mm 11,7 C 14,5 C 20,9 km/h (4 Bft) 100,00 %
02.07.2020 00:13 26,8 C 17,2 C 53 % 70 % 1010,2 hPa 0,0 l/m 14,5 km/h (3 Bft) S-SW 202 0,000 mm 11,7 C 14,0 C 19,3 km/h (3 Bft) 95,65 %
02.07.2020 00:12 26,8 C 17,2 C 53 % 70 % 1010,3 hPa 0,0 l/m 14,5 km/h (3 Bft) S-SW 202 0,000 mm 11,7 C 14,0 C 19,3 km/h (3 Bft) 100,00 %
02.07.2020 00:11 26,8 C 17,2 C 53 % 70 % 1010,3 hPa 0,0 l/m 17,7 km/h (3 Bft) S-SW 202 0,000 mm 11,7 C 13,1 C 24,1 km/h (4 Bft) 100,00 %
02.07.2020 00:10 26,8 C 17,2 C 53 % 70 % 1010,3 hPa 0,0 l/m 12,9 km/h (3 Bft) S-SW 202 0,000 mm 11,7 C 14,5 C 16,1 km/h (3 Bft) 95,65 %
02.07.2020 00:09 26,8 C 17,2 C 53 % 70 % 1010,3 hPa 0,0 l/m 16,1 km/h (3 Bft) SW 225 0,000 mm 11,7 C 13,5 C 25,7 km/h (4 Bft) 100,00 %
02.07.2020 00:08 26,8 C 17,2 C 53 % 70 % 1010,4 hPa 0,0 l/m 14,5 km/h (3 Bft) S-SW 202 0,000 mm 11,7 C 14,0 C 19,3 km/h (3 Bft) 100,00 %
02.07.2020 00:07 26,8 C 17,2 C 53 % 70 % 1010,4 hPa 0,0 l/m 14,5 km/h (3 Bft) S-SW 202 0,000 mm 11,7 C 14,0 C 17,7 km/h (3 Bft) 100,00 %
02.07.2020 00:06 26,8 C 17,2 C 53 % 71 % 1010,4 hPa 0,0 l/m 14,5 km/h (3 Bft) S 180 0,000 mm 11,9 C 14,0 C 20,9 km/h (4 Bft) 100,00 %
02.07.2020 00:05 26,8 C 17,2 C 53 % 71 % 1010,5 hPa 0,0 l/m 11,3 km/h (2 Bft) S-SW 202 0,000 mm 11,9 C 15,1 C 14,5 km/h (3 Bft) 100,00 %
02.07.2020 00:04 26,8 C 17,2 C 53 % 71 % 1010,4 hPa 0,0 l/m 12,9 km/h (3 Bft) S-SW 202 0,000 mm 11,9 C 14,5 C 19,3 km/h (3 Bft) 100,00 %
02.07.2020 00:03 26,8 C 17,2 C 53 % 72 % 1010,5 hPa 0,0 l/m 12,9 km/h (3 Bft) S-SW 202 0,000 mm 12,1 C 14,5 C 19,3 km/h (3 Bft) 100,00 %
02.07.2020 00:02 26,8 C 17,1 C 53 % 72 % 1010,5 hPa 0,0 l/m 12,9 km/h (3 Bft) S-SW 202 0,000 mm 12,0 C 14,4 C 19,3 km/h (3 Bft) 100,00 %
02.07.2020 00:01 26,9 C 17,1 C 53 % 72 % 1010,5 hPa 0,0 l/m 11,3 km/h (2 Bft) S-SW 202 0,000 mm 12,0 C 14,9 C 16,1 km/h (3 Bft) 95,65 %
02.07.2020 00:00 26,9 C 17,1 C 53 % 72 % 1010,6 hPa 0,0 l/m 11,3 km/h (2 Bft) SW 225 0,000 mm 12,0 C 14,9 C 16,1 km/h (3 Bft) 95,65 %
_ Min-Zeit 00:50 04:02 05:22 08:19 00:40 - 01:35 - - - 03:13 00:11 01:45 02:59
Minimum _ 26,5 C 14,7 C 51 % 63 % 1010,1 hPa - 0,0 km/h (0 Bft) - - - 10,2 C 13,1 C 0,0 km/h (0 Bft) 91,30 %
_ Max-Zeit 07:11 08:30 00:00 04:10 07:08 00:00 00:11 - - 00:00 08:16 08:30 00:09 00:02
Maximum _ 27,1 C 20,3 C 53 % 79 % 1013,2 hPa 0,0 l/m 17,7 km/h
S-SW (3 Bft)
- - 0,000 mm 13,4 C 20,3 C 25,7 km/h
S-SW (4 Bft)
100,00 %
Durchschnitt _ 26,8 C 16,4 C 52 % 72 % 1011,6 hPa #0,0 l/m 4,2 km/h (1 Bft) SW - #0,000 mm 11,3 C 16,1 C 6,3 km/h (2 Bft) 99,21 %